| time (UTC) | temp F | wind direction | speed knots | gust knots | rain 1hr in | rain 24hr in | rain mn in | humidity % | barometer mb |
| 20260509212225 | 91 | 7 | 2.6 | 5.2 | 0.00 | 0.01 | 0.00 | 60 | 1005.7 |
| 20260509212127 | 91 | 7 | 3.5 | 5.2 | 0.00 | 0.01 | 0.00 | 60 | 1005.7 |
| 20260509212026 | 91 | 7 | 1.7 | 5.2 | 0.00 | 0.01 | 0.00 | 61 | 1005.6 |
| 20260509211926 | 91 | 355 | 0.9 | 4.3 | 0.00 | 0.01 | 0.00 | 62 | 1005.7 |
| 20260509211825 | 90 | 269 | 0.9 | 4.3 | 0.00 | 0.01 | 0.00 | 62 | 1005.8 |
| 20260509211727 | 90 | 269 | 0.9 | 4.3 | 0.00 | 0.01 | 0.00 | 63 | 1005.7 |
| 20260509211625 | 89 | 269 | 1.7 | 4.3 | 0.00 | 0.01 | 0.00 | 63 | 1005.7 |
| 20260509211525 | 89 | 269 | 1.7 | 4.3 | 0.00 | 0.01 | 0.00 | 62 | 1005.7 |
| 20260509211428 | 89 | 269 | 2.6 | 4.3 | 0.00 | 0.01 | 0.00 | 62 | 1005.8 |
| 20260509211326 | 90 | 269 | 2.6 | 5.2 | 0.00 | 0.01 | 0.00 | 62 | 1005.7 |
| 20260509211227 | 90 | 269 | 3.5 | 5.2 | 0.00 | 0.01 | 0.00 | 61 | 1005.7 |
| 20260509211126 | 90 | 285 | 3.5 | 5.2 | 0.00 | 0.01 | 0.00 | 61 | 1005.8 |
| 20260509211028 | 91 | 307 | 2.6 | 5.2 | 0.00 | 0.01 | 0.00 | 61 | 1005.8 |
| 20260509210926 | 90 | 319 | 2.6 | 5.2 | 0.00 | 0.01 | 0.00 | 61 | 1005.8 |
| 20260509210826 | 90 | 319 | 2.6 | 5.2 | 0.00 | 0.01 | 0.00 | 61 | 1005.8 |
| 20260509210725 | 90 | 321 | 1.7 | 5.2 | 0.00 | 0.01 | 0.00 | 61 | 1005.8 |
| 20260509210626 | 90 | 303 | 1.7 | 5.2 | 0.00 | 0.01 | 0.00 | 60 | 1005.8 |
| 20260509210526 | 91 | 269 | 2.6 | 5.2 | 0.00 | 0.01 | 0.00 | 60 | 1005.8 |
| 20260509210425 | 91 | 269 | 1.7 | 5.2 | 0.00 | 0.01 | 0.00 | 59 | 1005.9 |
| 20260509210326 | 91 | 281 | 0.0 | 3.5 | 0.00 | 0.01 | 0.00 | 61 | 1005.9 |
| 20260509210226 | 91 | 0 | 0.0 | 5.2 | 0.00 | 0.01 | 0.00 | 62 | 1005.9 |
| 20260509210125 | 91 | 0 | 0.9 | 5.2 | 0.00 | 0.01 | 0.00 | 61 | 1005.9 |
| 20260509210026 | 91 | 0 | 1.7 | 5.2 | 0.00 | 0.01 | 0.00 | 61 | 1006.0 |
| 20260509205925 | 91 | 0 | 1.7 | 5.2 | 0.00 | 0.01 | 0.00 | 60 | 1005.9 |
| 20260509205823 | 91 | 0 | 2.6 | 5.2 | 0.00 | 0.01 | 0.00 | 61 | 1006.0 |
| 20260509205723 | 91 | 0 | 2.6 | 5.2 | 0.00 | 0.01 | 0.00 | 61 | 1006.0 |
| 20260509205621 | 91 | 353 | 1.7 | 5.2 | 0.00 | 0.01 | 0.00 | 61 | 1006.0 |
| 20260509205520 | 91 | 353 | 1.7 | 5.2 | 0.00 | 0.01 | 0.00 | 61 | 1006.0 |
| 20260509205419 | 91 | 353 | 2.6 | 5.2 | 0.00 | 0.01 | 0.00 | 61 | 1006.0 |
| 20260509205315 | 91 | 336 | 3.5 | 5.2 | 0.00 | 0.01 | 0.00 | 62 | 1006.1 |
| 20260509205215 | 91 | 345 | 3.5 | 5.2 | 0.00 | 0.01 | 0.00 | 63 | 1006.2 |
| 20260509205112 | 91 | 326 | 3.5 | 5.2 | 0.00 | 0.01 | 0.00 | 62 | 1006.1 |
| 20260509205011 | 91 | 309 | 3.5 | 5.2 | 0.00 | 0.01 | 0.00 | 62 | 1006.1 |
| 20260509204910 | 91 | 316 | 3.5 | 5.2 | 0.00 | 0.01 | 0.00 | 63 | 1006.2 |
| 20260509204808 | 92 | 347 | 3.5 | 5.2 | 0.00 | 0.01 | 0.00 | 61 | 1006.1 |
| 20260509204707 | 92 | 312 | 2.6 | 4.3 | 0.00 | 0.01 | 0.00 | 61 | 1006.1 |
| 20260509204605 | 93 | 338 | 2.6 | 4.3 | 0.00 | 0.01 | 0.00 | 60 | 1006.1 |
| 20260509204504 | 93 | 0 | 1.7 | 2.6 | 0.00 | 0.01 | 0.00 | 60 | 1006.1 |
| 20260509204403 | 92 | 0 | 1.7 | 2.6 | 0.00 | 0.01 | 0.00 | 60 | 1006.1 |
| 20260509204305 | 92 | 350 | 1.7 | 2.6 | 0.00 | 0.01 | 0.00 | 61 | 1006.1 |
| 20260509204203 | 91 | 353 | 1.7 | 3.5 | 0.00 | 0.01 | 0.00 | 62 | 1006.2 |
| 20260509204103 | 91 | 353 | 1.7 | 3.5 | 0.00 | 0.01 | 0.00 | 62 | 1006.2 |
| 20260509204005 | 91 | 353 | 1.7 | 3.5 | 0.00 | 0.01 | 0.00 | 62 | 1006.2 |
| 20260509203903 | 91 | 353 | 1.7 | 3.5 | 0.00 | 0.01 | 0.00 | 61 | 1006.2 |
| 20260509203803 | 91 | 353 | 1.7 | 3.5 | 0.00 | 0.01 | 0.00 | 61 | 1006.2 |
| 20260509203702 | 91 | 353 | 0.9 | 3.5 | 0.00 | 0.01 | 0.00 | 62 | 1006.2 |
| 20260509203602 | 91 | 353 | 0.9 | 3.5 | 0.00 | 0.01 | 0.00 | 61 | 1006.3 |
| 20260509203502 | 91 | 353 | 1.7 | 3.5 | 0.00 | 0.01 | 0.00 | 61 | 1006.3 |
| 20260509203405 | 91 | 353 | 2.6 | 3.5 | 0.00 | 0.01 | 0.00 | 61 | 1006.3 |
| 20260509203302 | 91 | 353 | 2.6 | 3.5 | 0.00 | 0.01 | 0.00 | 61 | 1006.3 |
| 20260509203203 | 91 | 350 | 1.7 | 3.5 | 0.00 | 0.01 | 0.00 | 62 | 1006.3 |
| 20260509203103 | 91 | 350 | 1.7 | 3.5 | 0.00 | 0.01 | 0.00 | 62 | 1006.3 |
| 20260509203004 | 91 | 350 | 1.7 | 3.5 | 0.00 | 0.01 | 0.00 | 63 | 1006.4 |
| 20260509202903 | 90 | 0 | 0.9 | 3.5 | 0.00 | 0.01 | 0.00 | 62 | 1006.3 |
| 20260509202803 | 91 | 0 | 0.9 | 3.5 | 0.00 | 0.01 | 0.00 | 61 | 1006.4 |
| 20260509202704 | 91 | 357 | 1.7 | 3.5 | 0.00 | 0.01 | 0.00 | 61 | 1006.3 |
| 20260509202602 | 91 | 357 | 2.6 | 4.3 | 0.00 | 0.01 | 0.00 | 62 | 1006.4 |
| 20260509202503 | 90 | 357 | 2.6 | 4.3 | 0.00 | 0.01 | 0.00 | 62 | 1006.4 |
| 20260509202404 | 90 | 351 | 1.7 | 4.3 | 0.00 | 0.01 | 0.00 | 62 | 1006.4 |
| 20260509202306 | 90 | 353 | 2.6 | 4.3 | 0.00 | 0.01 | 0.00 | 62 | 1006.3 |
| 20260509202203 | 90 | 350 | 2.6 | 4.3 | 0.00 | 0.01 | 0.00 | 63 | 1006.4 |
| 20260509202102 | 90 | 0 | 1.7 | 4.3 | 0.00 | 0.01 | 0.00 | 63 | 1006.4 |
| 20260509202004 | 90 | 0 | 1.7 | 4.3 | 0.00 | 0.01 | 0.00 | 63 | 1006.4 |
| 20260509201901 | 90 | 0 | 2.6 | 4.3 | 0.00 | 0.01 | 0.00 | 63 | 1006.4 |
| 20260509201802 | 89 | 348 | 3.5 | 4.3 | 0.00 | 0.01 | 0.00 | 64 | 1006.4 |
| 20260509201704 | 89 | 348 | 3.5 | 4.3 | 0.00 | 0.01 | 0.00 | 64 | 1006.4 |
| 20260509201602 | 89 | 314 | 3.5 | 4.3 | 0.00 | 0.01 | 0.00 | 64 | 1006.4 |
| 20260509201503 | 89 | 316 | 3.5 | 4.3 | 0.00 | 0.01 | 0.00 | 65 | 1006.4 |
| 20260509201403 | 89 | 0 | 3.5 | 6.1 | 0.00 | 0.01 | 0.00 | 65 | 1006.4 |
| 20260509201304 | 89 | 13 | 3.5 | 6.1 | 0.00 | 0.01 | 0.00 | 64 | 1006.4 |
| 20260509201202 | 89 | 0 | 3.5 | 6.1 | 0.00 | 0.01 | 0.00 | 64 | 1006.5 |
| 20260509201102 | 90 | 0 | 3.5 | 6.1 | 0.00 | 0.01 | 0.00 | 63 | 1006.5 |
| 20260509201003 | 90 | 348 | 2.6 | 6.1 | 0.00 | 0.01 | 0.00 | 64 | 1006.6 |
| 20260509200902 | 90 | 324 | 2.6 | 6.1 | 0.00 | 0.01 | 0.00 | 63 | 1006.5 |
| 20260509200802 | 91 | 321 | 3.5 | 6.1 | 0.00 | 0.01 | 0.00 | 63 | 1006.5 |
| 20260509200703 | 90 | 323 | 3.5 | 6.1 | 0.00 | 0.01 | 0.00 | 63 | 1006.6 |
| 20260509200603 | 90 | 0 | 3.5 | 6.1 | 0.00 | 0.01 | 0.00 | 64 | 1006.5 |
| 20260509200503 | 90 | 324 | 5.2 | 6.1 | 0.00 | 0.02 | 0.00 | 63 | 1006.6 |
| 20260509200402 | 91 | 338 | 4.3 | 6.1 | 0.00 | 0.02 | 0.00 | 62 | 1006.6 |
| 20260509200303 | 91 | 317 | 2.6 | 6.1 | 0.00 | 0.02 | 0.00 | 63 | 1006.6 |
| 20260509200202 | 91 | 0 | 1.7 | 6.1 | 0.00 | 0.02 | 0.00 | 63 | 1006.6 |
| 20260509200003 | 90 | 31 | 3.5 | 6.1 | 0.00 | 0.03 | 0.00 | 63 | 1006.6 |
| 20260509195903 | 90 | 35 | 2.6 | 6.1 | 0.00 | 0.03 | 0.00 | 63 | 1006.6 |
| 20260509195803 | 90 | 28 | 3.5 | 6.1 | 0.00 | 0.03 | 0.00 | 63 | 1006.7 |
| 20260509195704 | 90 | 17 | 4.3 | 6.1 | 0.00 | 0.03 | 0.00 | 62 | 1006.7 |
| 20260509195602 | 91 | 11 | 3.5 | 6.1 | 0.00 | 0.03 | 0.00 | 63 | 1006.7 |
| 20260509195502 | 90 | 39 | 3.5 | 6.1 | 0.00 | 0.03 | 0.00 | 61 | 1006.8 |
| 20260509195401 | 91 | 56 | 4.3 | 6.1 | 0.00 | 0.03 | 0.00 | 61 | 1006.7 |
| 20260509195306 | 91 | 42 | 4.3 | 6.1 | 0.00 | 0.03 | 0.00 | 62 | 1006.8 |
| 20260509195203 | 91 | 37 | 2.6 | 6.1 | 0.00 | 0.04 | 0.00 | 62 | 1006.7 |
| 20260509195103 | 91 | 0 | 1.7 | 5.2 | 0.00 | 0.04 | 0.00 | 63 | 1006.7 |
| 20260509195003 | 90 | 336 | 1.7 | 5.2 | 0.00 | 0.04 | 0.00 | 62 | 1006.7 |
| 20260509194902 | 90 | 336 | 2.6 | 5.2 | 0.00 | 0.04 | 0.00 | 62 | 1006.7 |
| 20260509194803 | 91 | 320 | 2.6 | 5.2 | 0.00 | 0.04 | 0.00 | 61 | 1006.7 |
| 20260509194702 | 91 | 320 | 2.6 | 5.2 | 0.00 | 0.04 | 0.00 | 61 | 1006.7 |
| 20260509194602 | 91 | 334 | 1.7 | 6.1 | 0.00 | 0.04 | 0.00 | 63 | 1006.7 |
| 20260509194502 | 91 | 0 | 2.6 | 6.1 | 0.00 | 0.04 | 0.00 | 62 | 1006.8 |
| 20260509194403 | 91 | 0 | 3.5 | 6.1 | 0.00 | 0.04 | 0.00 | 62 | 1006.8 |
| 20260509194304 | 90 | 345 | 3.5 | 6.1 | 0.00 | 0.04 | 0.00 | 62 | 1006.8 |
| 20260509194202 | 91 | 338 | 1.7 | 6.1 | 0.00 | 0.05 | 0.00 | 62 | 1006.8 |
| 20260509194103 | 91 | 326 | 0.9 | 6.1 | 0.00 | 0.05 | 0.00 | 62 | 1006.9 |
| 20260509194003 | 90 | 326 | 2.6 | 6.1 | 0.00 | 0.05 | 0.00 | 63 | 1006.9 |
| 20260509193903 | 90 | 321 | 3.5 | 6.1 | 0.00 | 0.05 | 0.00 | 63 | 1007.0 |
| 20260509193802 | 90 | 334 | 4.3 | 6.1 | 0.00 | 0.05 | 0.00 | 64 | 1007.0 |
| 20260509193702 | 89 | 320 | 3.5 | 6.1 | 0.00 | 0.05 | 0.00 | 65 | 1007.0 |
| 20260509193603 | 89 | 319 | 2.6 | 6.1 | 0.00 | 0.05 | 0.00 | 64 | 1006.9 |
| 20260509193502 | 89 | 282 | 4.3 | 6.1 | 0.00 | 0.05 | 0.00 | 64 | 1007.0 |
| 20260509193403 | 89 | 314 | 3.5 | 6.1 | 0.00 | 0.05 | 0.00 | 65 | 1007.0 |
| 20260509193303 | 89 | 286 | 1.7 | 5.2 | 0.00 | 0.05 | 0.00 | 65 | 1007.0 |
| 20260509193202 | 89 | 317 | 2.6 | 5.2 | 0.00 | 0.05 | 0.00 | 65 | 1007.0 |
| 20260509193102 | 89 | 290 | 2.6 | 5.2 | 0.00 | 0.05 | 0.00 | 65 | 1007.1 |
| 20260509193003 | 89 | 305 | 2.6 | 5.2 | 0.00 | 0.05 | 0.00 | 65 | 1007.1 |
| 20260509192903 | 88 | 312 | 3.5 | 5.2 | 0.00 | 0.05 | 0.00 | 66 | 1007.0 |
| 20260509192802 | 88 | 313 | 2.6 | 5.2 | 0.00 | 0.05 | 0.00 | 67 | 1007.0 |
| 20260509192702 | 88 | 300 | 2.6 | 5.2 | 0.00 | 0.05 | 0.00 | 68 | 1007.1 |
| 20260509192603 | 88 | 296 | 3.5 | 5.2 | 0.00 | 0.05 | 0.00 | 65 | 1007.0 |
| 20260509192503 | 88 | 305 | 3.5 | 5.2 | 0.00 | 0.05 | 0.00 | 65 | 1007.0 |
| 20260509192403 | 88 | 314 | 1.7 | 5.2 | 0.00 | 0.05 | 0.00 | 65 | 1007.0 |
| 20260509192305 | 88 | 83 | 1.7 | 5.2 | 0.00 | 0.05 | 0.00 | 65 | 1007.0 |
| 20260509192204 | 88 | 83 | 1.7 | 5.2 | 0.00 | 0.05 | 0.00 | 65 | 1007.0 |
| 20260509192102 | 88 | 85 | 1.7 | 5.2 | 0.00 | 0.05 | 0.00 | 66 | 1006.9 |
| 20260509192002 | 88 | 116 | 1.7 | 5.2 | 0.00 | 0.05 | 0.00 | 66 | 1006.9 |
| 20260509191903 | 88 | 235 | 2.6 | 5.2 | 0.00 | 0.05 | 0.00 | 65 | 1007.0 |
| 20260509191802 | 88 | 235 | 4.3 | 5.2 | 0.00 | 0.05 | 0.00 | 66 | 1007.0 |
| 20260509191702 | 88 | 231 | 3.5 | 5.2 | 0.00 | 0.05 | 0.00 | 65 | 1007.0 |
| 20260509191604 | 88 | 216 | 0.9 | 3.5 | 0.00 | 0.05 | 0.00 | 65 | 1007.0 |
| 20260509191503 | 88 | 310 | 0.9 | 2.6 | 0.00 | 0.05 | 0.00 | 66 | 1007.1 |
| 20260509191402 | 88 | 312 | 1.7 | 2.6 | 0.00 | 0.05 | 0.00 | 66 | 1007.0 |
| 20260509191303 | 88 | 312 | 1.7 | 2.6 | 0.00 | 0.05 | 0.00 | 67 | 1007.1 |
| 20260509191203 | 88 | 90 | 1.7 | 2.6 | 0.00 | 0.05 | 0.00 | 68 | 1007.1 |
| 20260509191102 | 88 | 117 | 1.7 | 2.6 | 0.00 | 0.05 | 0.00 | 68 | 1007.1 |
| 20260509191002 | 88 | 3 | 0.9 | 2.6 | 0.00 | 0.05 | 0.00 | 68 | 1007.2 |
| 20260509190903 | 87 | 0 | 0.9 | 2.6 | 0.00 | 0.05 | 0.00 | 68 | 1007.1 |
| 20260509190804 | 87 | 0 | 0.9 | 2.6 | 0.00 | 0.05 | 0.00 | 69 | 1007.1 |
| 20260509190702 | 87 | 0 | 0.0 | 2.6 | 0.00 | 0.05 | 0.00 | 68 | 1007.2 |
| 20260509190603 | 87 | 0 | 0.0 | 2.6 | 0.00 | 0.05 | 0.00 | 67 | 1007.2 |
| 20260509190505 | 87 | 358 | 0.0 | 2.6 | 0.00 | 0.05 | 0.00 | 68 | 1007.2 |
| 20260509190402 | 87 | 358 | 0.9 | 2.6 | 0.00 | 0.05 | 0.00 | 67 | 1007.1 |
| 20260509190302 | 87 | 358 | 0.9 | 2.6 | 0.00 | 0.05 | 0.00 | 67 | 1007.2 |
| 20260509190203 | 87 | 358 | 0.9 | 2.6 | 0.00 | 0.05 | 0.00 | 68 | 1007.2 |
| 20260509190001 | 87 | 288 | 0.9 | 3.5 | 0.00 | 0.05 | 0.00 | 68 | 1007.2 |
| 20260509185901 | 87 | 288 | 0.9 | 3.5 | 0.00 | 0.05 | 0.00 | 67 | 1007.3 |
| 20260509185803 | 87 | 288 | 0.9 | 3.5 | 0.00 | 0.05 | 0.00 | 67 | 1007.3 |
| 20260509185702 | 87 | 288 | 0.9 | 4.3 | 0.00 | 0.05 | 0.00 | 68 | 1007.3 |
| 20260509185559 | 87 | 288 | 1.7 | 4.3 | 0.00 | 0.05 | 0.00 | 68 | 1007.3 |
| 20260509185459 | 87 | 288 | 1.7 | 4.3 | 0.00 | 0.05 | 0.00 | 68 | 1007.3 |
| 20260509185357 | 87 | 272 | 1.7 | 4.3 | 0.00 | 0.05 | 0.00 | 67 | 1007.3 |
| 20260509185255 | 87 | 272 | 1.7 | 4.3 | 0.00 | 0.05 | 0.00 | 67 | 1007.3 |
| 20260509185153 | 87 | 272 | 1.7 | 4.3 | 0.00 | 0.05 | 0.00 | 67 | 1007.3 |
| 20260509185053 | 87 | 221 | 1.7 | 4.3 | 0.00 | 0.05 | 0.00 | 68 | 1007.3 |
| 20260509184950 | 87 | 261 | 1.7 | 4.3 | 0.00 | 0.05 | 0.00 | 68 | 1007.3 |
| 20260509184849 | 87 | 238 | 2.6 | 4.3 | 0.00 | 0.05 | 0.00 | 68 | 1007.3 |
| 20260509184747 | 87 | 238 | 3.5 | 4.3 | 0.00 | 0.05 | 0.00 | 68 | 1007.3 |
| 20260509184647 | 87 | 240 | 2.6 | 4.3 | 0.00 | 0.05 | 0.00 | 68 | 1007.2 |
| 20260509184545 | 87 | 151 | 2.6 | 5.2 | 0.00 | 0.05 | 0.00 | 68 | 1007.3 |
| 20260509184444 | 87 | 195 | 2.6 | 7.8 | 0.00 | 0.05 | 0.00 | 69 | 1007.3 |
| 20260509184341 | 86 | 106 | 2.6 | 7.8 | 0.00 | 0.05 | 0.00 | 69 | 1007.3 |
| 20260509184240 | 86 | 228 | 3.5 | 7.8 | 0.00 | 0.05 | 0.00 | 69 | 1007.4 |
| 20260509184139 | 86 | 226 | 2.6 | 7.8 | 0.00 | 0.05 | 0.00 | 69 | 1007.4 |
| 20260509184037 | 86 | 264 | 1.7 | 7.8 | 0.00 | 0.05 | 0.00 | 69 | 1007.4 |
| 20260509183936 | 86 | 258 | 2.6 | 7.8 | 0.00 | 0.05 | 0.00 | 70 | 1007.4 |
| 20260509183834 | 86 | 258 | 2.6 | 7.8 | 0.00 | 0.05 | 0.00 | 70 | 1007.4 |
| 20260509183732 | 86 | 264 | 3.5 | 7.8 | 0.00 | 0.05 | 0.00 | 70 | 1007.4 |
| 20260509183632 | 86 | 264 | 4.3 | 8.7 | 0.00 | 0.05 | 0.00 | 70 | 1007.4 |
| 20260509183531 | 86 | 286 | 4.3 | 8.7 | 0.00 | 0.05 | 0.00 | 70 | 1007.4 |
| 20260509183431 | 86 | 217 | 3.5 | 8.7 | 0.00 | 0.05 | 0.00 | 71 | 1007.4 |
| 20260509183331 | 85 | 252 | 2.6 | 8.7 | 0.00 | 0.05 | 0.00 | 72 | 1007.4 |
| 20260509183231 | 85 | 258 | 2.6 | 8.7 | 0.00 | 0.05 | 0.00 | 71 | 1007.5 |
| 20260509183132 | 85 | 247 | 2.6 | 8.7 | 0.00 | 0.05 | 0.00 | 71 | 1007.4 |
| 20260509183030 | 86 | 261 | 3.5 | 8.7 | 0.00 | 0.05 | 0.00 | 71 | 1007.4 |
| 20260509182932 | 86 | 238 | 5.2 | 8.7 | 0.00 | 0.05 | 0.00 | 71 | 1007.5 |
| 20260509182831 | 86 | 252 | 5.2 | 8.7 | 0.00 | 0.05 | 0.00 | 71 | 1007.5 |
| 20260509182732 | 86 | 250 | 4.3 | 8.7 | 0.00 | 0.05 | 0.00 | 71 | 1007.6 |
| 20260509182631 | 86 | 209 | 3.5 | 8.7 | 0.00 | 0.05 | 0.00 | 71 | 1007.5 |
| 20260509182531 | 86 | 200 | 3.5 | 8.7 | 0.00 | 0.05 | 0.00 | 71 | 1007.6 |
| 20260509182430 | 86 | 231 | 3.5 | 8.7 | 0.00 | 0.05 | 0.00 | 70 | 1007.5 |
| 20260509182332 | 86 | 238 | 3.5 | 8.7 | 0.00 | 0.05 | 0.00 | 70 | 1007.5 |
| 20260509182232 | 86 | 203 | 3.5 | 8.7 | 0.00 | 0.05 | 0.00 | 70 | 1007.6 |
| 20260509182131 | 86 | 195 | 4.3 | 9.6 | 0.00 | 0.05 | 0.00 | 70 | 1007.5 |
| 20260509182033 | 86 | 183 | 3.5 | 9.6 | 0.00 | 0.05 | 0.00 | 70 | 1007.6 |
| 20260509181932 | 86 | 220 | 3.5 | 9.6 | 0.00 | 0.05 | 0.00 | 70 | 1007.6 |
| 20260509181830 | 86 | 210 | 2.6 | 9.6 | 0.00 | 0.05 | 0.00 | 71 | 1007.6 |
| 20260509181730 | 86 | 234 | 1.7 | 9.6 | 0.00 | 0.05 | 0.00 | 70 | 1007.7 |
| 20260509181631 | 86 | 192 | 1.7 | 9.6 | 0.00 | 0.05 | 0.00 | 70 | 1007.7 |
| 20260509181531 | 86 | 173 | 3.5 | 9.6 | 0.00 | 0.05 | 0.00 | 70 | 1007.7 |
| 20260509181431 | 87 | 226 | 5.2 | 9.6 | 0.00 | 0.05 | 0.00 | 69 | 1007.7 |
| 20260509181331 | 87 | 234 | 5.2 | 9.6 | 0.00 | 0.05 | 0.00 | 69 | 1007.7 |
| 20260509181231 | 87 | 230 | 5.2 | 9.6 | 0.00 | 0.05 | 0.00 | 70 | 1007.7 |
| 20260509181131 | 87 | 173 | 5.2 | 9.6 | 0.00 | 0.05 | 0.00 | 69 | 1007.8 |
| 20260509181031 | 88 | 89 | 4.3 | 9.6 | 0.00 | 0.05 | 0.00 | 68 | 1007.7 |
| 20260509180931 | 88 | 152 | 5.2 | 9.6 | 0.00 | 0.05 | 0.00 | 68 | 1007.9 |
| 20260509180831 | 89 | 121 | 5.2 | 9.6 | 0.00 | 0.05 | 0.00 | 67 | 1007.9 |
| 20260509180731 | 89 | 192 | 5.2 | 9.6 | 0.00 | 0.05 | 0.00 | 67 | 1007.9 |
| 20260509180629 | 89 | 151 | 4.3 | 9.6 | 0.00 | 0.05 | 0.00 | 69 | 1007.9 |
| 20260509180527 | 89 | 169 | 4.3 | 9.6 | 0.00 | 0.05 | 0.00 | 68 | 1007.9 |
| 20260509180426 | 89 | 202 | 3.5 | 9.6 | 0.00 | 0.05 | 0.00 | 70 | 1007.9 |
| 20260509180324 | 88 | 195 | 2.6 | 11.3 | 0.00 | 0.05 | 0.00 | 70 | 1007.9 |
| 20260509180222 | 88 | 155 | 2.6 | 11.3 | 0.00 | 0.05 | 0.00 | 71 | 1007.9 |
| 20260509180123 | 87 | 248 | 5.2 | 11.3 | 0.00 | 0.05 | 0.00 | 70 | 1007.9 |
| 20260509180022 | 87 | 248 | 5.2 | 11.3 | 0.00 | 0.05 | 0.00 | 70 | 1008.0 |
| 20260509175923 | 87 | 248 | 5.2 | 11.3 | 0.00 | 0.05 | 0.00 | 70 | 1007.9 |
| 20260509175822 | 87 | 247 | 6.1 | 11.3 | 0.00 | 0.05 | 0.00 | 70 | 1008.0 |
| 20260509175721 | 88 | 235 | 6.1 | 11.3 | 0.00 | 0.05 | 0.00 | 69 | 1008.0 |
| 20260509175623 | 88 | 197 | 6.1 | 11.3 | 0.00 | 0.05 | 0.00 | 70 | 1008.1 |
| 20260509175522 | 88 | 179 | 6.1 | 11.3 | 0.00 | 0.05 | 0.00 | 70 | 1008.1 |
| 20260509175422 | 88 | 203 | 7.0 | 10.4 | 0.00 | 0.05 | 0.00 | 71 | 1008.1 |
| 20260509175323 | 88 | 264 | 5.2 | 9.6 | 0.00 | 0.05 | 0.00 | 72 | 1008.2 |
| 20260509175222 | 87 | 192 | 4.3 | 7.8 | 0.00 | 0.05 | 0.00 | 73 | 1008.1 |
| 20260509175121 | 87 | 223 | 4.3 | 7.8 | 0.00 | 0.05 | 0.00 | 72 | 1008.1 |
| 20260509175021 | 87 | 206 | 3.5 | 8.7 | 0.00 | 0.05 | 0.00 | 72 | 1008.2 |
| 20260509174923 | 87 | 231 | 3.5 | 8.7 | 0.00 | 0.05 | 0.00 | 72 | 1008.1 |
| 20260509174821 | 87 | 250 | 2.6 | 9.6 | 0.00 | 0.05 | 0.00 | 73 | 1008.1 |
| 20260509174721 | 87 | 259 | 1.7 | 9.6 | 0.00 | 0.05 | 0.00 | 74 | 1008.1 |
| 20260509174622 | 86 | 131 | 3.5 | 9.6 | 0.00 | 0.05 | 0.00 | 74 | 1008.1 |
| 20260509174522 | 86 | 189 | 4.3 | 9.6 | 0.00 | 0.05 | 0.00 | 74 | 1008.2 |
| 20260509174421 | 86 | 275 | 4.3 | 9.6 | 0.00 | 0.05 | 0.00 | 75 | 1008.2 |
| 20260509174322 | 86 | 166 | 4.3 | 9.6 | 0.00 | 0.05 | 0.00 | 75 | 1008.3 |
| 20260509174223 | 85 | 226 | 4.3 | 9.6 | 0.00 | 0.05 | 0.00 | 75 | 1008.3 |
| 20260509174123 | 85 | 223 | 4.3 | 9.6 | 0.00 | 0.05 | 0.00 | 76 | 1008.3 |
| 20260509174020 | 85 | 269 | 5.2 | 9.6 | 0.00 | 0.05 | 0.00 | 76 | 1008.3 |
| 20260509173922 | 85 | 227 | 5.2 | 9.6 | 0.00 | 0.05 | 0.00 | 76 | 1008.2 |
| 20260509173821 | 85 | 203 | 5.2 | 10.4 | 0.00 | 0.05 | 0.00 | 76 | 1008.3 |
| 20260509173722 | 85 | 223 | 5.2 | 10.4 | 0.00 | 0.05 | 0.00 | 76 | 1008.2 |
| 20260509173621 | 85 | 175 | 5.2 | 10.4 | 0.00 | 0.05 | 0.00 | 76 | 1008.2 |
| 20260509173523 | 85 | 125 | 4.3 | 10.4 | 0.00 | 0.05 | 0.00 | 77 | 1008.2 |
| 20260509173420 | 85 | 213 | 3.5 | 10.4 | 0.00 | 0.05 | 0.00 | 77 | 1008.2 |
| 20260509173322 | 85 | 197 | 4.3 | 10.4 | 0.00 | 0.05 | 0.00 | 77 | 1008.2 |
| 20260509173223 | 85 | 185 | 3.5 | 10.4 | 0.00 | 0.05 | 0.00 | 78 | 1008.2 |
| 20260509173121 | 85 | 207 | 4.3 | 10.4 | 0.00 | 0.05 | 0.00 | 78 | 1008.3 |
| 20260509173022 | 85 | 138 | 5.2 | 10.4 | 0.00 | 0.05 | 0.00 | 78 | 1008.3 |
| 20260509172923 | 85 | 102 | 5.2 | 10.4 | 0.00 | 0.05 | 0.00 | 78 | 1008.3 |
| 20260509172822 | 85 | 151 | 3.5 | 9.6 | 0.00 | 0.05 | 0.00 | 79 | 1008.2 |
| 20260509172720 | 84 | 200 | 3.5 | 9.6 | 0.00 | 0.05 | 0.00 | 79 | 1008.2 |
| 20260509172620 | 84 | 220 | 4.3 | 9.6 | 0.00 | 0.05 | 0.00 | 79 | 1008.3 |
| 20260509172523 | 84 | 193 | 4.3 | 9.6 | 0.00 | 0.05 | 0.00 | 79 | 1008.3 |
| 20260509172421 | 84 | 176 | 5.2 | 9.6 | 0.00 | 0.05 | 0.00 | 79 | 1008.3 |
| 20260509172321 | 84 | 209 | 5.2 | 9.6 | 0.00 | 0.05 | 0.00 | 79 | 1008.4 |
| 20260509172221 | 84 | 209 | 5.2 | 8.7 | 0.00 | 0.05 | 0.00 | 79 | 1008.4 |
| 20260509172122 | 84 | 214 | 5.2 | 9.6 | 0.00 | 0.05 | 0.00 | 78 | 1008.4 |
| 20260509172020 | 84 | 214 | 5.2 | 9.6 | 0.00 | 0.05 | 0.00 | 78 | 1008.4 |
| 20260509171920 | 84 | 228 | 4.3 | 9.6 | 0.00 | 0.05 | 0.00 | 79 | 1008.4 |
| 20260509171821 | 84 | 265 | 4.3 | 9.6 | 0.00 | 0.05 | 0.00 | 79 | 1008.5 |
| 20260509171721 | 84 | 202 | 4.3 | 9.6 | 0.00 | 0.05 | 0.00 | 79 | 1008.5 |
| 20260509171621 | 84 | 248 | 4.3 | 9.6 | 0.00 | 0.05 | 0.00 | 79 | 1008.4 |
| 20260509171521 | 84 | 244 | 4.3 | 9.6 | 0.00 | 0.05 | 0.00 | 79 | 1008.4 |
| 20260509171420 | 84 | 190 | 5.2 | 9.6 | 0.00 | 0.05 | 0.00 | 79 | 1008.4 |
| 20260509171321 | 84 | 228 | 6.1 | 9.6 | 0.00 | 0.05 | 0.00 | 79 | 1008.5 |
| 20260509171220 | 84 | 195 | 5.2 | 9.6 | 0.00 | 0.05 | 0.00 | 79 | 1008.5 |
| 20260509171122 | 84 | 210 | 3.5 | 9.6 | 0.00 | 0.05 | 0.00 | 79 | 1008.4 |
| 20260509171020 | 85 | 216 | 3.5 | 9.6 | 0.00 | 0.05 | 0.00 | 80 | 1008.4 |
| 20260509170920 | 84 | 214 | 3.5 | 9.6 | 0.00 | 0.05 | 0.00 | 80 | 1008.3 |
| 20260509170822 | 84 | 262 | 2.6 | 8.7 | 0.00 | 0.05 | 0.00 | 82 | 1008.3 |
| 20260509170722 | 84 | 162 | 2.6 | 8.7 | 0.00 | 0.05 | 0.00 | 82 | 1008.3 |
| 20260509170620 | 83 | 117 | 3.5 | 8.7 | 0.00 | 0.05 | 0.00 | 81 | 1008.2 |
| 20260509170520 | 83 | 182 | 3.5 | 8.7 | 0.00 | 0.05 | 0.00 | 82 | 1008.3 |
| 20260509170421 | 83 | 165 | 2.6 | 8.7 | 0.00 | 0.05 | 0.00 | 83 | 1008.3 |
| 20260509170320 | 82 | 182 | 2.6 | 8.7 | 0.00 | 0.05 | 0.00 | 84 | 1008.3 |
| 20260509170220 | 82 | 159 | 3.5 | 8.7 | 0.00 | 0.05 | 0.00 | 83 | 1008.4 |
| 20260509170121 | 81 | 175 | 4.3 | 8.7 | 0.00 | 0.05 | 0.00 | 83 | 1008.4 |
| 20260509170021 | 81 | 234 | 3.5 | 8.7 | 0.00 | 0.05 | 0.00 | 83 | 1008.5 |
| 20260509165921 | 81 | 171 | 2.6 | 5.2 | 0.00 | 0.05 | 0.00 | 84 | 1008.4 |
| 20260509165820 | 81 | 180 | 1.7 | 5.2 | 0.00 | 0.05 | 0.00 | 84 | 1008.5 |
| 20260509165722 | 81 | 94 | 1.7 | 5.2 | 0.00 | 0.05 | 0.00 | 84 | 1008.4 |
| 20260509165620 | 81 | 173 | 1.7 | 5.2 | 0.00 | 0.05 | 0.00 | 84 | 1008.4 |
| 20260509165520 | 81 | 166 | 1.7 | 5.2 | 0.00 | 0.05 | 0.00 | 84 | 1008.4 |
| 20260509165421 | 81 | 173 | 2.6 | 5.2 | 0.00 | 0.05 | 0.00 | 84 | 1008.5 |
| 20260509165319 | 81 | 200 | 3.5 | 5.2 | 0.00 | 0.05 | 0.00 | 84 | 1008.5 |
| 20260509165221 | 81 | 171 | 2.6 | 4.3 | 0.00 | 0.05 | 0.00 | 84 | 1008.3 |
| 20260509165120 | 81 | 199 | 0.9 | 3.5 | 0.00 | 0.05 | 0.00 | 85 | 1008.5 |
| 20260509165021 | 81 | 196 | 0.0 | 3.5 | 0.00 | 0.05 | 0.00 | 84 | 1008.4 |
| 20260509164920 | 81 | 164 | 0.9 | 3.5 | 0.00 | 0.05 | 0.00 | 84 | 1008.5 |
| 20260509164820 | 81 | 162 | 1.7 | 3.5 | 0.00 | 0.05 | 0.00 | 85 | 1008.4 |
| 20260509164720 | 81 | 195 | 0.9 | 3.5 | 0.00 | 0.05 | 0.00 | 85 | 1008.5 |
| 20260509164620 | 81 | 169 | 0.0 | 3.5 | 0.00 | 0.05 | 0.00 | 85 | 1008.5 |
| 20260509164520 | 80 | 252 | 0.0 | 3.5 | 0.00 | 0.05 | 0.00 | 85 | 1008.5 |
| 20260509164420 | 80 | 252 | 0.9 | 3.5 | 0.00 | 0.05 | 0.00 | 85 | 1008.4 |
| 20260509164319 | 80 | 252 | 1.7 | 3.5 | 0.00 | 0.05 | 0.00 | 85 | 1008.4 |
| 20260509164220 | 80 | 268 | 1.7 | 3.5 | 0.00 | 0.05 | 0.00 | 85 | 1008.4 |
| 20260509164119 | 80 | 269 | 1.7 | 3.5 | 0.00 | 0.05 | 0.00 | 85 | 1008.4 |
| 20260509164020 | 80 | 276 | 1.7 | 3.5 | 0.00 | 0.05 | 0.00 | 85 | 1008.5 |
| 20260509163920 | 80 | 278 | 1.7 | 3.5 | 0.00 | 0.05 | 0.00 | 85 | 1008.5 |
| 20260509163820 | 80 | 240 | 1.7 | 3.5 | 0.00 | 0.05 | 0.00 | 85 | 1008.6 |
| 20260509163720 | 80 | 240 | 1.7 | 3.5 | 0.00 | 0.05 | 0.00 | 85 | 1008.6 |
| 20260509163621 | 80 | 247 | 1.7 | 3.5 | 0.00 | 0.05 | 0.00 | 85 | 1008.6 |
| 20260509163519 | 80 | 268 | 1.7 | 3.5 | 0.00 | 0.05 | 0.00 | 85 | 1008.6 |
| 20260509163419 | 80 | 264 | 2.6 | 3.5 | 0.00 | 0.05 | 0.00 | 85 | 1008.6 |
| 20260509163320 | 80 | 252 | 1.7 | 3.5 | 0.00 | 0.05 | 0.00 | 85 | 1008.6 |
| 20260509163219 | 80 | 254 | 1.7 | 3.5 | 0.00 | 0.05 | 0.00 | 84 | 1008.6 |
| 20260509163119 | 80 | 254 | 1.7 | 3.5 | 0.00 | 0.05 | 0.00 | 84 | 1008.6 |
| 20260509163019 | 80 | 258 | 1.7 | 2.6 | 0.00 | 0.05 | 0.00 | 84 | 1008.6 |
| 20260509162920 | 80 | 258 | 1.7 | 2.6 | 0.00 | 0.05 | 0.00 | 85 | 1008.6 |
| 20260509162821 | 80 | 326 | 1.7 | 2.6 | 0.00 | 0.05 | 0.00 | 85 | 1008.6 |
| 20260509162721 | 80 | 326 | 1.7 | 2.6 | 0.00 | 0.05 | 0.00 | 85 | 1008.6 |
| 20260509162620 | 80 | 326 | 0.9 | 2.6 | 0.00 | 0.05 | 0.00 | 85 | 1008.7 |
| 20260509162519 | 80 | 326 | 0.0 | 2.6 | 0.00 | 0.05 | 0.00 | 86 | 1008.6 |
| 20260509162419 | 80 | 326 | 0.0 | 2.6 | 0.00 | 0.05 | 0.00 | 86 | 1008.6 |
| 20260509162320 | 80 | 326 | 0.9 | 2.6 | 0.00 | 0.05 | 0.00 | 85 | 1008.6 |
| 20260509162220 | 80 | 326 | 0.9 | 2.6 | 0.00 | 0.05 | 0.00 | 86 | 1008.6 |
| 20260509162120 | 80 | 326 | 0.0 | 2.6 | 0.00 | 0.05 | 0.00 | 86 | 1008.6 |
| 20260509162020 | 80 | 326 | 0.9 | 2.6 | 0.00 | 0.05 | 0.00 | 86 | 1008.6 |
| 20260509161920 | 80 | 326 | 1.7 | 3.5 | 0.00 | 0.05 | 0.00 | 86 | 1008.6 |
| 20260509161820 | 80 | 326 | 0.9 | 4.3 | 0.00 | 0.05 | 0.00 | 86 | 1008.6 |
| 20260509161721 | 80 | 329 | 0.9 | 4.3 | 0.00 | 0.05 | 0.00 | 87 | 1008.7 |
| 20260509161621 | 80 | 329 | 0.9 | 4.3 | 0.00 | 0.05 | 0.00 | 86 | 1008.7 |
| 20260509161519 | 80 | 329 | 0.9 | 4.3 | 0.00 | 0.05 | 0.00 | 86 | 1008.7 |
| 20260509161419 | 80 | 329 | 0.9 | 4.3 | 0.00 | 0.05 | 0.00 | 87 | 1008.7 |
| 20260509161319 | 80 | 329 | 1.7 | 4.3 | 0.00 | 0.05 | 0.00 | 87 | 1008.7 |
| 20260509161220 | 80 | 329 | 1.7 | 4.3 | 0.00 | 0.05 | 0.00 | 87 | 1008.7 |
| 20260509161119 | 80 | 329 | 2.6 | 4.3 | 0.00 | 0.05 | 0.00 | 87 | 1008.7 |
| 20260509161020 | 80 | 329 | 2.6 | 4.3 | 0.00 | 0.05 | 0.00 | 87 | 1008.7 |
| 20260509160920 | 80 | 324 | 2.6 | 4.3 | 0.00 | 0.05 | 0.00 | 87 | 1008.7 |
| 20260509160820 | 80 | 14 | 0.9 | 2.6 | 0.00 | 0.05 | 0.00 | 87 | 1008.7 |
| 20260509160720 | 80 | 14 | 0.9 | 2.6 | 0.00 | 0.05 | 0.00 | 87 | 1008.8 |
| 20260509160620 | 80 | 14 | 0.9 | 2.6 | 0.00 | 0.05 | 0.00 | 87 | 1008.8 |
| 20260509160520 | 80 | 14 | 0.9 | 2.6 | 0.00 | 0.05 | 0.00 | 87 | 1008.8 |
| 20260509160420 | 80 | 14 | 0.9 | 3.5 | 0.00 | 0.05 | 0.00 | 87 | 1008.7 |
| 20260509160318 | 80 | 14 | 0.9 | 3.5 | 0.00 | 0.05 | 0.00 | 87 | 1008.8 |
| 20260509160220 | 80 | 14 | 1.7 | 3.5 | 0.00 | 0.05 | 0.00 | 87 | 1008.7 |
| 20260509160119 | 80 | 14 | 0.9 | 3.5 | 0.00 | 0.05 | 0.00 | 87 | 1008.8 |
| 20260509160019 | 80 | 14 | 0.9 | 3.5 | 0.00 | 0.05 | 0.00 | 87 | 1008.7 |
| 20260509155920 | 80 | 14 | 1.7 | 3.5 | 0.00 | 0.05 | 0.00 | 87 | 1008.7 |
| 20260509155821 | 80 | 14 | 1.7 | 3.5 | 0.00 | 0.05 | 0.00 | 87 | 1008.7 |
| 20260509155719 | 80 | 14 | 1.7 | 3.5 | 0.00 | 0.05 | 0.00 | 87 | 1008.7 |
| 20260509155618 | 80 | 14 | 1.7 | 3.5 | 0.00 | 0.05 | 0.00 | 87 | 1008.7 |
| 20260509155518 | 80 | 14 | 1.7 | 3.5 | 0.00 | 0.05 | 0.00 | 87 | 1008.7 |
| 20260509155418 | 80 | 14 | 1.7 | 3.5 | 0.00 | 0.05 | 0.00 | 87 | 1008.7 |
| 20260509155318 | 80 | 14 | 1.7 | 2.6 | 0.00 | 0.05 | 0.00 | 87 | 1008.7 |
| 20260509155218 | 80 | 13 | 0.9 | 2.6 | 0.00 | 0.05 | 0.00 | 87 | 1008.7 |
| 20260509155118 | 80 | 11 | 0.0 | 2.6 | 0.00 | 0.05 | 0.00 | 87 | 1008.7 |
| 20260509155019 | 80 | 11 | 0.9 | 2.6 | 0.00 | 0.05 | 0.00 | 88 | 1008.7 |
| 20260509154919 | 80 | 11 | 0.9 | 2.6 | 0.00 | 0.05 | 0.00 | 88 | 1008.6 |
| 20260509154819 | 80 | 13 | 1.7 | 2.6 | 0.00 | 0.05 | 0.00 | 88 | 1008.6 |
| 20260509154718 | 80 | 13 | 1.7 | 2.6 | 0.00 | 0.05 | 0.00 | 88 | 1008.6 |
| 20260509154619 | 80 | 13 | 1.7 | 3.5 | 0.00 | 0.05 | 0.00 | 89 | 1008.6 |
| 20260509154518 | 79 | 13 | 0.9 | 3.5 | 0.00 | 0.05 | 0.00 | 88 | 1008.6 |
| 20260509154419 | 79 | 13 | 0.9 | 3.5 | 0.00 | 0.05 | 0.00 | 88 | 1008.6 |
| 20260509154318 | 79 | 13 | 1.7 | 3.5 | 0.00 | 0.05 | 0.00 | 89 | 1008.6 |
| 20260509154218 | 80 | 13 | 0.9 | 3.5 | 0.00 | 0.05 | 0.00 | 89 | 1008.6 |
| 20260509154119 | 80 | 13 | 0.9 | 3.5 | 0.00 | 0.05 | 0.00 | 89 | 1008.6 |
| 20260509154019 | 79 | 13 | 0.9 | 3.5 | 0.00 | 0.05 | 0.00 | 89 | 1008.6 |
| 20260509153918 | 79 | 13 | 1.7 | 3.5 | 0.00 | 0.05 | 0.00 | 90 | 1008.6 |
| 20260509153818 | 79 | 13 | 2.6 | 3.5 | 0.00 | 0.05 | 0.00 | 90 | 1008.5 |
| 20260509153719 | 79 | 14 | 1.7 | 3.5 | 0.00 | 0.05 | 0.00 | 90 | 1008.6 |
| 20260509153619 | 79 | 354 | 1.7 | 2.6 | 0.00 | 0.05 | 0.00 | 90 | 1008.6 |
| 20260509153518 | 79 | 354 | 0.9 | 2.6 | 0.00 | 0.05 | 0.00 | 90 | 1008.6 |
| 20260509153420 | 79 | 353 | 0.9 | 2.6 | 0.00 | 0.05 | 0.00 | 90 | 1008.7 |
| 20260509153319 | 79 | 351 | 1.7 | 2.6 | 0.00 | 0.05 | 0.00 | 90 | 1008.8 |
| 20260509153218 | 79 | 214 | 1.7 | 2.6 | 0.00 | 0.05 | 0.00 | 90 | 1008.8 |
| 20260509153119 | 79 | 219 | 0.9 | 1.7 | 0.00 | 0.05 | 0.00 | 90 | 1008.8 |
| 20260509153018 | 79 | 204 | 0.0 | 1.7 | 0.00 | 0.05 | 0.00 | 91 | 1008.8 |
| 20260509152918 | 78 | 0 | 0.0 | 1.7 | 0.00 | 0.05 | 0.00 | 91 | 1008.7 |
| 20260509152818 | 78 | 286 | 0.0 | 1.7 | 0.00 | 0.05 | 0.00 | 91 | 1008.7 |
| 20260509152719 | 78 | 290 | 0.0 | 1.7 | 0.00 | 0.05 | 0.00 | 91 | 1008.7 |
| 20260509152618 | 78 | 295 | 0.9 | 2.6 | 0.00 | 0.05 | 0.00 | 91 | 1008.7 |
| 20260509152518 | 78 | 298 | 0.9 | 2.6 | 0.00 | 0.05 | 0.00 | 91 | 1008.7 |
| 20260509152420 | 78 | 298 | 0.9 | 2.6 | 0.00 | 0.05 | 0.00 | 92 | 1008.7 |
| 20260509152317 | 78 | 300 | 0.0 | 2.6 | 0.00 | 0.05 | 0.00 | 92 | 1008.6 |
| 20260509152219 | 78 | 303 | 0.0 | 2.6 | 0.00 | 0.05 | 0.00 | 92 | 1008.7 |
| 20260509152118 | 78 | 303 | 0.0 | 2.6 | 0.00 | 0.05 | 0.00 | 92 | 1008.7 |
| 20260509152020 | 78 | 305 | 0.9 | 2.6 | 0.00 | 0.05 | 0.00 | 92 | 1008.7 |
| 20260509151918 | 78 | 305 | 1.7 | 2.6 | 0.00 | 0.05 | 0.00 | 92 | 1008.7 |
| 20260509151818 | 78 | 303 | 1.7 | 2.6 | 0.00 | 0.05 | 0.00 | 92 | 1008.7 |
| 20260509151718 | 78 | 302 | 0.9 | 2.6 | 0.00 | 0.05 | 0.00 | 92 | 1008.8 |
| 20260509151619 | 78 | 300 | 0.9 | 2.6 | 0.00 | 0.05 | 0.00 | 92 | 1008.9 |
| 20260509151517 | 78 | 300 | 0.9 | 2.6 | 0.00 | 0.05 | 0.00 | 93 | 1008.9 |
| 20260509151417 | 78 | 298 | 0.9 | 2.6 | 0.00 | 0.05 | 0.00 | 92 | 1008.9 |
| 20260509151320 | 78 | 305 | 1.7 | 2.6 | 0.00 | 0.05 | 0.00 | 92 | 1008.9 |
| 20260509151218 | 78 | 306 | 1.7 | 2.6 | 0.00 | 0.05 | 0.00 | 92 | 1008.9 |
| 20260509151118 | 78 | 302 | 1.7 | 2.6 | 0.00 | 0.05 | 0.00 | 92 | 1008.8 |
| 20260509151017 | 78 | 303 | 1.7 | 2.6 | 0.00 | 0.05 | 0.00 | 93 | 1008.8 |
| 20260509150919 | 78 | 302 | 0.9 | 2.6 | 0.00 | 0.05 | 0.00 | 93 | 1008.9 |
| 20260509150819 | 77 | 303 | 1.7 | 2.6 | 0.00 | 0.05 | 0.00 | 93 | 1008.8 |
| 20260509150718 | 77 | 303 | 1.7 | 2.6 | 0.00 | 0.05 | 0.00 | 92 | 1008.7 |
| 20260509150618 | 77 | 302 | 1.7 | 2.6 | 0.00 | 0.05 | 0.00 | 93 | 1008.7 |
| 20260509150518 | 77 | 300 | 1.7 | 2.6 | 0.00 | 0.05 | 0.00 | 93 | 1008.7 |
| 20260509150417 | 77 | 302 | 0.9 | 2.6 | 0.00 | 0.05 | 0.00 | 93 | 1008.7 |
| 20260509150318 | 77 | 299 | 1.7 | 2.6 | 0.00 | 0.05 | 0.00 | 93 | 1008.7 |
| 20260509150218 | 77 | 292 | 1.7 | 2.6 | 0.00 | 0.05 | 0.00 | 93 | 1008.7 |
| 20260509150117 | 77 | 296 | 1.7 | 2.6 | 0.00 | 0.05 | 0.00 | 93 | 1008.7 |
| 20260509150017 | 77 | 299 | 1.7 | 2.6 | 0.00 | 0.05 | 0.00 | 93 | 1008.6 |
| 20260509145918 | 77 | 299 | 1.7 | 2.6 | 0.00 | 0.05 | 0.00 | 93 | 1008.6 |
| 20260509145817 | 77 | 299 | 1.7 | 2.6 | 0.00 | 0.05 | 0.00 | 93 | 1008.5 |
| 20260509145717 | 77 | 302 | 0.9 | 2.6 | 0.00 | 0.05 | 0.00 | 93 | 1008.5 |
| 20260509145618 | 77 | 299 | 1.7 | 2.6 | 0.00 | 0.05 | 0.00 | 94 | 1008.5 |
| 20260509145517 | 77 | 300 | 1.7 | 2.6 | 0.00 | 0.05 | 0.00 | 94 | 1008.5 |
| 20260509145417 | 77 | 298 | 1.7 | 2.6 | 0.00 | 0.05 | 0.00 | 94 | 1008.4 |
| 20260509145317 | 77 | 298 | 1.7 | 2.6 | 0.00 | 0.05 | 0.00 | 94 | 1008.4 |
| 20260509145218 | 77 | 299 | 0.9 | 2.6 | 0.00 | 0.05 | 0.00 | 94 | 1008.4 |
| 20260509145117 | 77 | 245 | 0.0 | 1.7 | 0.00 | 0.05 | 0.00 | 94 | 1008.4 |
| 20260509145018 | 77 | 244 | 0.9 | 1.7 | 0.00 | 0.05 | 0.00 | 94 | 1008.4 |
| 20260509144918 | 77 | 241 | 0.9 | 1.7 | 0.00 | 0.05 | 0.00 | 95 | 1008.4 |
| 20260509144817 | 77 | 241 | 0.9 | 1.7 | 0.00 | 0.05 | 0.00 | 94 | 1008.4 |
| 20260509144718 | 77 | 241 | 0.9 | 1.7 | 0.00 | 0.05 | 0.00 | 94 | 1008.4 |
| 20260509144617 | 77 | 244 | 0.0 | 1.7 | 0.00 | 0.05 | 0.00 | 95 | 1008.5 |
| 20260509144517 | 77 | 243 | 0.0 | 1.7 | 0.00 | 0.05 | 0.00 | 95 | 1008.4 |
| 20260509144418 | 77 | 243 | 0.0 | 1.7 | 0.00 | 0.05 | 0.00 | 95 | 1008.4 |
| 20260509144303 | 77 | 243 | 0.0 | 1.7 | 0.00 | 0.05 | 0.00 | 95 | 1008.4 |
| 20260509144204 | 77 | 243 | 0.9 | 1.7 | 0.00 | 0.05 | 0.00 | 95 | 1008.4 |
| 20260509144105 | 77 | 244 | 0.9 | 1.7 | 0.00 | 0.05 | 0.00 | 95 | 1008.4 |
| 20260509144002 | 77 | 241 | 0.0 | 0.0 | 0.00 | 0.05 | 0.00 | 95 | 1008.3 |
| 20260509143902 | 77 | 243 | 0.0 | 0.0 | 0.00 | 0.05 | 0.00 | 95 | 1008.3 |
| 20260509143802 | 76 | 245 | 0.0 | 0.0 | 0.00 | 0.05 | 0.00 | 96 | 1008.3 |
| 20260509143702 | 76 | 244 | 0.0 | 0.0 | 0.00 | 0.05 | 0.00 | 96 | 1008.4 |
| 20260509143602 | 76 | 247 | 0.0 | 0.0 | 0.00 | 0.05 | 0.00 | 96 | 1008.3 |
| 20260509143504 | 76 | 245 | 0.0 | 0.9 | 0.00 | 0.05 | 0.00 | 96 | 1008.4 |
| 20260509143403 | 76 | 248 | 0.0 | 1.7 | 0.00 | 0.05 | 0.00 | 96 | 1008.3 |
| 20260509143301 | 76 | 248 | 0.0 | 1.7 | 0.00 | 0.05 | 0.00 | 96 | 1008.4 |
| 20260509143203 | 76 | 248 | 0.0 | 1.7 | 0.00 | 0.05 | 0.00 | 96 | 1008.4 |
| 20260509143103 | 76 | 247 | 0.0 | 1.7 | 0.00 | 0.05 | 0.00 | 96 | 1008.4 |
| 20260509143002 | 76 | 245 | 0.0 | 1.7 | 0.00 | 0.05 | 0.00 | 96 | 1008.4 |
| 20260509142904 | 76 | 247 | 0.0 | 1.7 | 0.00 | 0.05 | 0.00 | 96 | 1008.5 |
| 20260509142803 | 76 | 245 | 0.0 | 1.7 | 0.00 | 0.05 | 0.00 | 96 | 1008.5 |
| 20260509142702 | 76 | 245 | 0.0 | 1.7 | 0.00 | 0.05 | 0.00 | 96 | 1008.5 |
| 20260509142602 | 76 | 245 | 0.9 | 1.7 | 0.00 | 0.05 | 0.00 | 96 | 1008.4 |
| 20260509142503 | 76 | 245 | 0.9 | 1.7 | 0.00 | 0.05 | 0.00 | 96 | 1008.4 |
| 20260509142403 | 76 | 245 | 0.9 | 1.7 | 0.00 | 0.05 | 0.00 | 96 | 1008.4 |
| 20260509142301 | 76 | 245 | 0.0 | 1.7 | 0.00 | 0.05 | 0.00 | 97 | 1008.4 |
| 20260509142203 | 76 | 247 | 0.0 | 1.7 | 0.00 | 0.05 | 0.00 | 97 | 1008.2 |
| 20260509142103 | 76 | 244 | 0.0 | 1.7 | 0.00 | 0.05 | 0.00 | 97 | 1008.1 |
| 20260509142004 | 76 | 245 | 0.0 | 1.7 | 0.00 | 0.05 | 0.00 | 97 | 1008.2 |
| 20260509141902 | 76 | 243 | 0.0 | 1.7 | 0.00 | 0.05 | 0.00 | 97 | 1008.2 |
| 20260509141802 | 76 | 244 | 0.9 | 1.7 | 0.00 | 0.05 | 0.00 | 97 | 1008.2 |
| 20260509141701 | 76 | 245 | 0.9 | 1.7 | 0.00 | 0.05 | 0.00 | 97 | 1008.2 |
| 20260509141601 | 76 | 245 | 0.0 | 1.7 | 0.00 | 0.05 | 0.00 | 97 | 1008.1 |
| 20260509141458 | 76 | 245 | 0.0 | 0.0 | 0.00 | 0.05 | 0.00 | 97 | 1008.1 |
| 20260509141354 | 76 | 244 | 0.0 | 0.0 | 0.00 | 0.05 | 0.00 | 97 | 1007.9 |
| 20260509141253 | 76 | 244 | 0.0 | 1.7 | 0.00 | 0.05 | 0.00 | 97 | 1007.9 |
| 20260509141149 | 76 | 245 | 0.0 | 1.7 | 0.00 | 0.05 | 0.00 | 97 | 1007.9 |
| 20260509141050 | 76 | 243 | 0.0 | 1.7 | 0.00 | 0.05 | 0.00 | 97 | 1007.9 |
| 20260509140945 | 76 | 244 | 0.0 | 2.6 | 0.00 | 0.05 | 0.00 | 97 | 1007.9 |
| 20260509140845 | 76 | 243 | 0.0 | 2.6 | 0.00 | 0.05 | 0.00 | 97 | 1007.9 |
| 20260509140742 | 76 | 241 | 0.0 | 2.6 | 0.00 | 0.05 | 0.00 | 97 | 1008.0 |
| 20260509140640 | 75 | 240 | 0.0 | 2.6 | 0.00 | 0.05 | 0.00 | 97 | 1008.0 |
| 20260509140539 | 75 | 241 | 0.0 | 2.6 | 0.00 | 0.05 | 0.00 | 97 | 1008.0 |
| 20260509140438 | 75 | 241 | 0.9 | 2.6 | 0.00 | 0.05 | 0.00 | 97 | 1008.1 |
| 20260509140336 | 75 | 241 | 1.7 | 2.6 | 0.00 | 0.05 | 0.00 | 97 | 1008.2 |
| 20260509140234 | 75 | 243 | 1.7 | 2.6 | 0.00 | 0.05 | 0.00 | 97 | 1008.1 |
| 20260509140133 | 75 | 243 | 1.7 | 2.6 | 0.00 | 0.05 | 0.00 | 97 | 1008.2 |
| 20260509140034 | 75 | 243 | 1.7 | 2.6 | 0.00 | 0.05 | 0.00 | 97 | 1008.1 |
| 20260509135931 | 76 | 243 | 0.9 | 2.6 | 0.00 | 0.05 | 0.00 | 98 | 1008.1 |
| 20260509135831 | 76 | 125 | 0.0 | 2.6 | 0.00 | 0.05 | 0.00 | 98 | 1008.0 |
| 20260509135732 | 76 | 125 | 0.0 | 5.2 | 0.00 | 0.05 | 0.00 | 98 | 1008.0 |
| 20260509135631 | 75 | 125 | 0.9 | 5.2 | 0.00 | 0.05 | 0.00 | 98 | 1008.0 |
| 20260509135530 | 75 | 125 | 0.9 | 5.2 | 0.00 | 0.05 | 0.00 | 98 | 1007.9 |
| 20260509135431 | 75 | 131 | 0.9 | 5.2 | 0.00 | 0.05 | 0.00 | 98 | 1008.0 |
| 20260509135330 | 76 | 149 | 0.9 | 5.2 | 0.00 | 0.05 | 0.00 | 98 | 1008.0 |
| 20260509135231 | 75 | 151 | 0.9 | 5.2 | 0.00 | 0.05 | 0.00 | 98 | 1008.0 |
| 20260509135128 | 75 | 149 | 1.7 | 5.2 | 0.00 | 0.05 | 0.00 | 98 | 1008.0 |
| 20260509135027 | 75 | 157 | 1.7 | 5.2 | 0.00 | 0.05 | 0.00 | 98 | 1008.1 |
| 20260509134926 | 75 | 162 | 2.6 | 5.2 | 0.00 | 0.05 | 0.00 | 98 | 1008.1 |
| 20260509134825 | 75 | 168 | 3.5 | 5.2 | 0.00 | 0.05 | 0.00 | 98 | 1008.1 |
| 20260509134723 | 75 | 164 | 2.6 | 5.2 | 0.00 | 0.05 | 0.00 | 98 | 1008.1 |
| 20260509134621 | 75 | 210 | 2.6 | 5.2 | 0.00 | 0.05 | 0.00 | 98 | 1008.2 |
| 20260509134520 | 76 | 203 | 3.5 | 6.1 | 0.00 | 0.05 | 0.00 | 98 | 1008.3 |
| 20260509134417 | 76 | 235 | 2.6 | 6.1 | 0.00 | 0.05 | 0.00 | 98 | 1008.3 |
| 20260509134317 | 76 | 214 | 2.6 | 6.1 | 0.00 | 0.05 | 0.00 | 98 | 1008.4 |
| 20260509134216 | 76 | 195 | 2.6 | 6.1 | 0.00 | 0.05 | 0.00 | 98 | 1008.4 |
| 20260509134116 | 75 | 121 | 3.5 | 6.1 | 0.00 | 0.05 | 0.00 | 98 | 1008.3 |
| 20260509134015 | 76 | 159 | 2.6 | 6.1 | 0.00 | 0.05 | 0.00 | 98 | 1008.3 |
| 20260509133917 | 76 | 180 | 2.6 | 6.1 | 0.00 | 0.05 | 0.00 | 98 | 1008.2 |
| 20260509133816 | 76 | 134 | 2.6 | 6.1 | 0.00 | 0.05 | 0.00 | 98 | 1008.1 |
| 20260509133715 | 76 | 164 | 3.5 | 6.1 | 0.00 | 0.05 | 0.00 | 98 | 1008.0 |
| 20260509133616 | 75 | 131 | 3.5 | 6.1 | 0.00 | 0.05 | 0.00 | 98 | 1008.0 |
| 20260509133515 | 75 | 116 | 2.6 | 4.3 | 0.00 | 0.05 | 0.00 | 98 | 1008.0 |
| 20260509133416 | 75 | 151 | 1.7 | 4.3 | 0.00 | 0.05 | 0.00 | 98 | 1008.0 |
| 20260509133315 | 75 | 114 | 1.7 | 4.3 | 0.00 | 0.05 | 0.00 | 98 | 1008.1 |
| 20260509133216 | 75 | 186 | 1.7 | 4.3 | 0.00 | 0.05 | 0.00 | 98 | 1008.1 |
| 20260509133116 | 75 | 142 | 1.7 | 4.3 | 0.00 | 0.05 | 0.00 | 98 | 1008.3 |
| 20260509133016 | 75 | 144 | 1.7 | 4.3 | 0.00 | 0.05 | 0.00 | 98 | 1008.4 |
| 20260509132917 | 75 | 154 | 2.6 | 4.3 | 0.00 | 0.05 | 0.00 | 98 | 1008.4 |
| 20260509132815 | 75 | 159 | 1.7 | 3.5 | 0.00 | 0.05 | 0.00 | 98 | 1008.5 |
| 20260509132715 | 75 | 135 | 0.0 | 2.6 | 0.00 | 0.05 | 0.00 | 99 | 1008.5 |
| 20260509132616 | 75 | 275 | 0.0 | 0.9 | 0.00 | 0.05 | 0.00 | 99 | 1008.5 |
| 20260509132516 | 75 | 275 | 0.0 | 0.9 | 0.00 | 0.05 | 0.00 | 98 | 1008.6 |
| 20260509132416 | 75 | 278 | 0.0 | 0.9 | 0.00 | 0.05 | 0.00 | 98 | 1008.6 |
| 20260509132315 | 75 | 275 | 0.0 | 0.9 | 0.00 | 0.05 | 0.00 | 98 | 1008.6 |
| 20260509132216 | 75 | 276 | 0.0 | 0.9 | 0.00 | 0.05 | 0.00 | 98 | 1008.6 |
| 20260509132116 | 75 | 274 | 0.0 | 0.9 | 0.00 | 0.05 | 0.00 | 98 | 1008.5 |
| 20260509132016 | 75 | 272 | 0.0 | 0.9 | 0.00 | 0.05 | 0.00 | 98 | 1008.5 |
| 20260509131917 | 75 | 262 | 0.0 | 1.7 | 0.00 | 0.05 | 0.00 | 98 | 1008.6 |
| 20260509131815 | 75 | 278 | 0.0 | 1.7 | 0.00 | 0.05 | 0.00 | 98 | 1008.6 |
| 20260509131715 | 75 | 293 | 0.0 | 2.6 | 0.00 | 0.05 | 0.00 | 98 | 1008.6 |
| 20260509131615 | 75 | 305 | 0.0 | 2.6 | 0.00 | 0.05 | 0.00 | 98 | 1008.5 |
| 20260509131515 | 74 | 309 | 0.0 | 2.6 | 0.00 | 0.05 | 0.00 | 98 | 1008.6 |
| 20260509131415 | 74 | 312 | 0.0 | 2.6 | 0.00 | 0.05 | 0.00 | 98 | 1008.6 |
| 20260509131315 | 74 | 313 | 0.0 | 2.6 | 0.00 | 0.05 | 0.00 | 98 | 1008.7 |
| 20260509131217 | 74 | 313 | 0.0 | 2.6 | 0.00 | 0.05 | 0.00 | 98 | 1008.7 |
| 20260509131116 | 74 | 313 | 0.0 | 2.6 | 0.00 | 0.05 | 0.00 | 98 | 1008.7 |
| 20260509131016 | 75 | 314 | 0.9 | 2.6 | 0.00 | 0.05 | 0.00 | 98 | 1008.8 |
| 20260509130915 | 75 | 314 | 1.7 | 2.6 | 0.00 | 0.05 | 0.00 | 98 | 1008.9 |
| 20260509130817 | 75 | 314 | 1.7 | 2.6 | 0.00 | 0.05 | 0.00 | 98 | 1008.9 |
| 20260509130715 | 75 | 314 | 0.9 | 1.7 | 0.00 | 0.05 | 0.00 | 98 | 1008.9 |
| 20260509130615 | 74 | 314 | 0.9 | 1.7 | 0.00 | 0.05 | 0.00 | 98 | 1008.9 |
| 20260509130516 | 74 | 314 | 0.9 | 1.7 | 0.00 | 0.05 | 0.00 | 98 | 1008.9 |
| 20260509130415 | 74 | 314 | 0.9 | 1.7 | 0.00 | 0.05 | 0.00 | 98 | 1008.9 |
| 20260509130315 | 74 | 314 | 0.0 | 0.9 | 0.00 | 0.05 | 0.00 | 98 | 1008.9 |
| 20260509130217 | 74 | 314 | 0.0 | 0.9 | 0.00 | 0.05 | 0.00 | 98 | 1008.9 |
| 20260509130115 | 74 | 314 | 0.0 | 0.9 | 0.00 | 0.05 | 0.00 | 98 | 1008.9 |
| 20260509130015 | 74 | 314 | 0.0 | 0.9 | 0.00 | 0.05 | 0.00 | 98 | 1009.0 |
| 20260509125915 | 74 | 314 | 0.0 | 1.7 | 0.00 | 0.05 | 0.00 | 98 | 1008.9 |
| 20260509125815 | 74 | 314 | 0.0 | 2.6 | 0.00 | 0.05 | 0.00 | 98 | 1008.9 |
| 20260509125714 | 74 | 314 | 0.0 | 2.6 | 0.00 | 0.05 | 0.00 | 98 | 1009.0 |
| 20260509125616 | 74 | 314 | 0.9 | 2.6 | 0.00 | 0.05 | 0.00 | 98 | 1008.9 |
| 20260509125515 | 74 | 314 | 0.0 | 2.6 | 0.00 | 0.05 | 0.00 | 98 | 1009.0 |
| 20260509125416 | 74 | 314 | 0.0 | 2.6 | 0.00 | 0.05 | 0.00 | 98 | 1009.0 |
| 20260509125314 | 74 | 314 | 0.0 | 2.6 | 0.00 | 0.05 | 0.00 | 98 | 1009.0 |
| 20260509125214 | 74 | 314 | 0.0 | 2.6 | 0.00 | 0.05 | 0.00 | 98 | 1009.0 |
| 20260509125116 | 74 | 314 | 0.9 | 2.6 | 0.00 | 0.05 | 0.00 | 98 | 1009.0 |
| 20260509125014 | 74 | 314 | 1.7 | 2.6 | 0.00 | 0.05 | 0.00 | 98 | 1009.0 |
| 20260509124914 | 74 | 314 | 1.7 | 2.6 | 0.00 | 0.05 | 0.00 | 98 | 1009.0 |
| 20260509124814 | 74 | 314 | 0.9 | 2.6 | 0.00 | 0.05 | 0.00 | 98 | 1008.9 |
| 20260509124716 | 74 | 314 | 0.9 | 2.6 | 0.00 | 0.05 | 0.00 | 98 | 1008.9 |
| 20260509124614 | 74 | 314 | 1.7 | 2.6 | 0.00 | 0.05 | 0.00 | 98 | 1008.8 |
| 20260509124515 | 74 | 306 | 0.9 | 2.6 | 0.00 | 0.05 | 0.00 | 98 | 1008.8 |
| 20260509124417 | 74 | 306 | 0.9 | 2.6 | 0.00 | 0.05 | 0.00 | 98 | 1008.8 |
| 20260509124315 | 74 | 306 | 0.9 | 2.6 | 0.00 | 0.05 | 0.00 | 98 | 1008.7 |
| 20260509124215 | 74 | 306 | 0.9 | 2.6 | 0.00 | 0.05 | 0.00 | 98 | 1008.8 |
| 20260509124115 | 74 | 306 | 0.9 | 2.6 | 0.00 | 0.05 | 0.00 | 98 | 1008.7 |
| 20260509124016 | 74 | 306 | 1.7 | 2.6 | 0.00 | 0.05 | 0.00 | 98 | 1008.7 |
| 20260509123914 | 74 | 306 | 1.7 | 2.6 | 0.00 | 0.05 | 0.00 | 98 | 1008.7 |
| 20260509123814 | 74 | 306 | 0.9 | 2.6 | 0.00 | 0.05 | 0.00 | 98 | 1008.6 |
| 20260509123716 | 74 | 306 | 0.9 | 2.6 | 0.00 | 0.05 | 0.00 | 98 | 1008.6 |
| 20260509123615 | 74 | 306 | 0.9 | 3.5 | 0.00 | 0.05 | 0.00 | 98 | 1008.7 |
| 20260509123515 | 74 | 306 | 1.7 | 3.5 | 0.00 | 0.05 | 0.00 | 98 | 1008.6 |
| 20260509123415 | 74 | 306 | 0.9 | 3.5 | 0.00 | 0.05 | 0.00 | 98 | 1008.6 |
| 20260509123315 | 74 | 306 | 0.9 | 3.5 | 0.00 | 0.05 | 0.00 | 98 | 1008.5 |
| 20260509123215 | 74 | 306 | 0.9 | 3.5 | 0.00 | 0.05 | 0.00 | 98 | 1008.5 |
| 20260509123114 | 74 | 306 | 0.9 | 3.5 | 0.00 | 0.05 | 0.00 | 98 | 1008.5 |
| 20260509123014 | 74 | 306 | 1.7 | 3.5 | 0.00 | 0.05 | 0.00 | 98 | 1008.4 |
| 20260509122914 | 74 | 306 | 1.7 | 3.5 | 0.00 | 0.05 | 0.00 | 98 | 1008.5 |
| 20260509122816 | 74 | 306 | 1.7 | 3.5 | 0.00 | 0.05 | 0.00 | 98 | 1008.5 |
| 20260509122715 | 74 | 306 | 2.6 | 3.5 | 0.00 | 0.05 | 0.00 | 98 | 1008.6 |
| 20260509122615 | 74 | 306 | 2.6 | 3.5 | 0.00 | 0.05 | 0.00 | 98 | 1008.5 |
| 20260509122513 | 74 | 306 | 2.6 | 3.5 | 0.00 | 0.05 | 0.00 | 98 | 1008.5 |
| 20260509122414 | 74 | 299 | 1.7 | 3.5 | 0.00 | 0.05 | 0.00 | 98 | 1008.4 |
| 20260509122316 | 74 | 299 | 1.7 | 3.5 | 0.00 | 0.05 | 0.00 | 98 | 1008.4 |
| 20260509122214 | 74 | 240 | 1.7 | 3.5 | 0.00 | 0.05 | 0.00 | 98 | 1008.3 |
| 20260509122115 | 74 | 240 | 2.6 | 3.5 | 0.00 | 0.05 | 0.00 | 98 | 1008.3 |
| 20260509122014 | 74 | 240 | 2.6 | 3.5 | 0.00 | 0.05 | 0.00 | 98 | 1008.3 |
| 20260509121913 | 74 | 221 | 1.7 | 3.5 | 0.00 | 0.05 | 0.00 | 98 | 1008.2 |
| 20260509121815 | 74 | 220 | 1.7 | 3.5 | 0.00 | 0.05 | 0.00 | 98 | 1008.2 |
| 20260509121714 | 74 | 204 | 1.7 | 3.5 | 0.00 | 0.05 | 0.00 | 98 | 1008.1 |
| 20260509121615 | 74 | 182 | 2.6 | 3.5 | 0.00 | 0.05 | 0.00 | 98 | 1008.1 |
| 20260509121514 | 74 | 189 | 1.7 | 3.5 | 0.00 | 0.05 | 0.00 | 98 | 1008.0 |
| 20260509121414 | 74 | 164 | 0.9 | 3.5 | 0.00 | 0.05 | 0.00 | 98 | 1008.0 |
| 20260509121313 | 74 | 165 | 0.9 | 3.5 | 0.00 | 0.05 | 0.00 | 98 | 1008.0 |
| 20260509121213 | 74 | 188 | 0.9 | 4.3 | 0.00 | 0.05 | 0.00 | 98 | 1008.1 |
| 20260509121114 | 74 | 219 | 1.7 | 4.3 | 0.00 | 0.05 | 0.00 | 98 | 1008.0 |
| 20260509121015 | 74 | 224 | 1.7 | 4.3 | 0.00 | 0.05 | 0.00 | 98 | 1008.0 |
| 20260509120915 | 74 | 223 | 1.7 | 4.3 | 0.00 | 0.05 | 0.00 | 98 | 1008.0 |
| 20260509120813 | 74 | 223 | 1.7 | 5.2 | 0.00 | 0.05 | 0.00 | 98 | 1008.0 |
| 20260509120713 | 74 | 223 | 1.7 | 5.2 | 0.00 | 0.05 | 0.00 | 98 | 1007.9 |
| 20260509120615 | 73 | 204 | 1.7 | 5.2 | 0.00 | 0.05 | 0.00 | 98 | 1007.9 |
| 20260509120514 | 73 | 203 | 2.6 | 5.2 | 0.00 | 0.05 | 0.00 | 98 | 1007.8 |
| 20260509120413 | 73 | 186 | 2.6 | 5.2 | 0.00 | 0.05 | 0.00 | 98 | 1007.9 |
| 20260509120313 | 73 | 195 | 3.5 | 5.2 | 0.00 | 0.05 | 0.00 | 98 | 1007.9 |
| 20260509120215 | 73 | 183 | 2.6 | 5.2 | 0.00 | 0.05 | 0.00 | 98 | 1007.9 |
| 20260509120114 | 73 | 175 | 2.6 | 5.2 | 0.00 | 0.05 | 0.00 | 98 | 1007.8 |
| 20260509120013 | 73 | 171 | 3.5 | 5.2 | 0.00 | 0.05 | 0.00 | 98 | 1007.9 |
| 20260509115915 | 73 | 172 | 3.5 | 5.2 | 0.00 | 0.05 | 0.00 | 98 | 1008.0 |
| 20260509115813 | 73 | 186 | 2.6 | 4.3 | 0.00 | 0.05 | 0.00 | 98 | 1008.0 |
| 20260509115713 | 73 | 164 | 2.6 | 4.3 | 0.00 | 0.05 | 0.00 | 98 | 1008.0 |
| 20260509115614 | 73 | 195 | 2.6 | 4.3 | 0.00 | 0.05 | 0.00 | 98 | 1008.0 |
| 20260509115513 | 73 | 179 | 1.7 | 3.5 | 0.00 | 0.05 | 0.00 | 98 | 1008.0 |
| 20260509115413 | 73 | 183 | 1.7 | 3.5 | 0.00 | 0.05 | 0.00 | 98 | 1008.0 |
| 20260509115313 | 73 | 179 | 1.7 | 3.5 | 0.00 | 0.05 | 0.00 | 98 | 1008.0 |
| 20260509115214 | 73 | 353 | 0.9 | 2.6 | 0.00 | 0.05 | 0.00 | 98 | 1007.9 |
| 20260509115113 | 73 | 0 | 0.0 | 1.7 | 0.00 | 0.05 | 0.00 | 98 | 1008.0 |
| 20260509115014 | 73 | 0 | 0.0 | 0.0 | 0.00 | 0.05 | 0.00 | 98 | 1008.0 |
| 20260509114915 | 73 | 0 | 0.0 | 0.0 | 0.00 | 0.05 | 0.00 | 98 | 1008.0 |
| 20260509114813 | 73 | 0 | 0.0 | 0.0 | 0.00 | 0.05 | 0.00 | 98 | 1008.0 |
| 20260509114713 | 73 | 0 | 0.0 | 1.7 | 0.00 | 0.05 | 0.00 | 98 | 1007.9 |
| 20260509114613 | 73 | 0 | 0.0 | 1.7 | 0.00 | 0.05 | 0.00 | 98 | 1008.0 |
| 20260509114514 | 73 | 0 | 0.0 | 1.7 | 0.00 | 0.05 | 0.00 | 98 | 1008.0 |
| 20260509114413 | 73 | 0 | 0.0 | 1.7 | 0.00 | 0.05 | 0.00 | 98 | 1008.0 |
| 20260509114314 | 73 | 0 | 0.0 | 2.6 | 0.00 | 0.05 | 0.00 | 98 | 1008.0 |
| 20260509114215 | 73 | 0 | 0.0 | 2.6 | 0.00 | 0.05 | 0.00 | 98 | 1008.1 |
| 20260509114113 | 73 | 0 | 0.0 | 3.5 | 0.00 | 0.05 | 0.00 | 98 | 1008.1 |
| 20260509114013 | 73 | 0 | 0.0 | 3.5 | 0.00 | 0.05 | 0.00 | 98 | 1008.2 |
| 20260509113914 | 73 | 0 | 0.0 | 3.5 | 0.00 | 0.05 | 0.00 | 98 | 1008.1 |
| 20260509113815 | 73 | 0 | 0.9 | 3.5 | 0.00 | 0.05 | 0.00 | 98 | 1008.1 |
| 20260509113713 | 73 | 0 | 0.9 | 3.5 | 0.00 | 0.05 | 0.00 | 98 | 1008.1 |
| 20260509113612 | 73 | 0 | 0.9 | 3.5 | 0.00 | 0.05 | 0.00 | 98 | 1008.1 |
| 20260509113513 | 73 | 0 | 0.9 | 3.5 | 0.00 | 0.05 | 0.00 | 98 | 1008.1 |
| 20260509113414 | 73 | 0 | 1.7 | 3.5 | 0.00 | 0.05 | 0.00 | 98 | 1008.2 |
| 20260509113314 | 73 | 0 | 1.7 | 3.5 | 0.00 | 0.05 | 0.00 | 98 | 1008.1 |
| 20260509113214 | 73 | 0 | 2.6 | 3.5 | 0.00 | 0.05 | 0.00 | 98 | 1008.2 |
| 20260509113115 | 73 | 0 | 1.7 | 2.6 | 0.00 | 0.05 | 0.00 | 98 | 1008.1 |
| 20260509113012 | 73 | 0 | 1.7 | 2.6 | 0.00 | 0.05 | 0.00 | 98 | 1008.1 |
| 20260509112912 | 73 | 0 | 0.9 | 2.6 | 0.00 | 0.05 | 0.00 | 98 | 1008.2 |
| 20260509112813 | 73 | 0 | 0.0 | 2.6 | 0.00 | 0.05 | 0.00 | 98 | 1008.3 |
| 20260509112712 | 73 | 0 | 0.0 | 2.6 | 0.00 | 0.05 | 0.00 | 98 | 1008.4 |
| 20260509112612 | 73 | 0 | 0.0 | 2.6 | 0.00 | 0.05 | 0.00 | 98 | 1008.4 |
| 20260509112512 | 73 | 0 | 0.0 | 2.6 | 0.00 | 0.05 | 0.00 | 98 | 1008.5 |
| 20260509112413 | 73 | 0 | 0.0 | 2.6 | 0.00 | 0.05 | 0.00 | 98 | 1008.5 |
| 20260509112310 | 73 | 0 | 0.9 | 2.6 | 0.00 | 0.05 | 0.00 | 98 | 1008.4 |
| 20260509112210 | 73 | 0 | 0.9 | 2.6 | 0.00 | 0.05 | 0.00 | 98 | 1008.5 |
| 20260509112109 | 73 | 0 | 0.9 | 2.6 | 0.00 | 0.05 | 0.00 | 98 | 1008.5 |
| 20260509112006 | 73 | 0 | 0.0 | 3.5 | 0.00 | 0.05 | 0.00 | 98 | 1008.5 |
| 20260509111904 | 73 | 0 | 0.0 | 3.5 | 0.00 | 0.05 | 0.00 | 98 | 1008.5 |
| 20260509111804 | 73 | 0 | 0.0 | 3.5 | 0.00 | 0.05 | 0.00 | 98 | 1008.5 |
| 20260509111704 | 73 | 0 | 0.0 | 5.2 | 0.00 | 0.05 | 0.00 | 98 | 1008.6 |
| 20260509111604 | 73 | 0 | 0.9 | 5.2 | 0.00 | 0.05 | 0.00 | 98 | 1008.6 |
| 20260509111504 | 73 | 0 | 1.7 | 5.2 | 0.00 | 0.05 | 0.00 | 98 | 1008.6 |
| 20260509111402 | 73 | 0 | 1.7 | 5.2 | 0.00 | 0.05 | 0.00 | 98 | 1008.7 |
| 20260509111301 | 73 | 0 | 1.7 | 5.2 | 0.00 | 0.05 | 0.00 | 98 | 1008.7 |
| 20260509111202 | 73 | 0 | 1.7 | 5.2 | 0.00 | 0.05 | 0.00 | 98 | 1008.8 |
| 20260509111104 | 73 | 0 | 1.7 | 5.2 | 0.00 | 0.05 | 0.00 | 98 | 1008.6 |
| 20260509111003 | 73 | 353 | 1.7 | 5.2 | 0.00 | 0.05 | 0.00 | 98 | 1008.6 |
| 20260509110903 | 73 | 353 | 3.5 | 5.2 | 0.00 | 0.05 | 0.00 | 98 | 1008.6 |
| 20260509110802 | 73 | 4 | 3.5 | 5.2 | 0.00 | 0.05 | 0.00 | 98 | 1008.6 |
| 20260509110703 | 73 | 350 | 3.5 | 4.3 | 0.00 | 0.05 | 0.00 | 98 | 1008.5 |
| 20260509110602 | 73 | 343 | 3.5 | 4.3 | 0.00 | 0.05 | 0.00 | 98 | 1008.5 |
| 20260509110503 | 73 | 0 | 2.6 | 4.3 | 0.00 | 0.05 | 0.00 | 98 | 1008.5 |
| 20260509110404 | 73 | 353 | 1.7 | 3.5 | 0.00 | 0.05 | 0.00 | 98 | 1008.5 |
| 20260509110302 | 73 | 353 | 2.6 | 3.5 | 0.00 | 0.05 | 0.00 | 98 | 1008.5 |
| 20260509110202 | 73 | 353 | 1.7 | 3.5 | 0.00 | 0.05 | 0.00 | 98 | 1008.5 |
| 20260509110103 | 73 | 0 | 1.7 | 3.5 | 0.00 | 0.05 | 0.00 | 98 | 1008.4 |
| 20260509110004 | 73 | 0 | 1.7 | 3.5 | 0.00 | 0.05 | 0.00 | 98 | 1008.4 |
| 20260509105902 | 73 | 0 | 2.6 | 3.5 | 0.00 | 0.05 | 0.00 | 98 | 1008.4 |
| 20260509105802 | 73 | 341 | 2.6 | 3.5 | 0.00 | 0.05 | 0.00 | 98 | 1008.3 |
| 20260509105703 | 73 | 344 | 2.6 | 3.5 | 0.00 | 0.05 | 0.00 | 98 | 1008.3 |
| 20260509105603 | 73 | 353 | 1.7 | 3.5 | 0.00 | 0.05 | 0.00 | 98 | 1008.3 |
| 20260509105504 | 73 | 353 | 2.6 | 3.5 | 0.00 | 0.05 | 0.00 | 98 | 1008.2 |
| 20260509105402 | 73 | 353 | 1.7 | 3.5 | 0.00 | 0.05 | 0.00 | 98 | 1008.2 |
| 20260509105306 | 73 | 18 | 1.7 | 2.6 | 0.00 | 0.05 | 0.00 | 98 | 1008.1 |
| 20260509105204 | 73 | 18 | 1.7 | 2.6 | 0.00 | 0.05 | 0.00 | 98 | 1008.1 |
| 20260509105103 | 73 | 18 | 1.7 | 2.6 | 0.00 | 0.05 | 0.00 | 98 | 1008.1 |
| 20260509105005 | 73 | 23 | 1.7 | 2.6 | 0.00 | 0.05 | 0.00 | 98 | 1008.0 |
| 20260509104903 | 73 | 23 | 1.7 | 2.6 | 0.00 | 0.05 | 0.00 | 98 | 1008.0 |
| 20260509104802 | 73 | 23 | 1.7 | 2.6 | 0.00 | 0.05 | 0.00 | 98 | 1008.0 |
| 20260509104702 | 73 | 24 | 1.7 | 2.6 | 0.00 | 0.05 | 0.00 | 98 | 1008.0 |
| 20260509104603 | 73 | 24 | 1.7 | 2.6 | 0.00 | 0.05 | 0.00 | 98 | 1008.0 |
| 20260509104504 | 73 | 24 | 1.7 | 2.6 | 0.00 | 0.05 | 0.00 | 98 | 1008.0 |
| 20260509104402 | 73 | 25 | 1.7 | 2.6 | 0.00 | 0.05 | 0.00 | 98 | 1008.0 |
| 20260509104304 | 73 | 56 | 0.9 | 2.6 | 0.00 | 0.05 | 0.00 | 98 | 1008.0 |
| 20260509104202 | 73 | 72 | 0.0 | 1.7 | 0.00 | 0.05 | 0.00 | 98 | 1007.9 |
| 20260509104108 | 73 | 72 | 0.0 | 0.9 | 0.00 | 0.05 | 0.00 | 98 | 1007.9 |
| 20260509104004 | 73 | 145 | 0.0 | 0.9 | 0.00 | 0.05 | 0.00 | 98 | 1007.9 |
| 20260509103903 | 73 | 145 | 0.0 | 0.9 | 0.00 | 0.05 | 0.00 | 98 | 1007.9 |
| 20260509103802 | 73 | 145 | 0.0 | 0.9 | 0.00 | 0.05 | 0.00 | 98 | 1007.9 |
| 20260509103659 | 73 | 145 | 0.0 | 0.9 | 0.00 | 0.05 | 0.00 | 98 | 1007.9 |
| 20260509103557 | 73 | 145 | 0.0 | 0.9 | 0.00 | 0.05 | 0.00 | 98 | 1008.0 |
| 20260509103456 | 73 | 145 | 0.0 | 2.6 | 0.00 | 0.05 | 0.00 | 98 | 1007.9 |
| 20260509103356 | 73 | 145 | 0.0 | 2.6 | 0.00 | 0.05 | 0.00 | 98 | 1007.9 |
| 20260509103253 | 73 | 145 | 0.0 | 2.6 | 0.00 | 0.05 | 0.00 | 98 | 1007.8 |
| 20260509103153 | 73 | 145 | 0.0 | 2.6 | 0.00 | 0.05 | 0.00 | 98 | 1007.9 |
| 20260509103050 | 73 | 145 | 0.0 | 2.6 | 0.00 | 0.05 | 0.00 | 98 | 1007.9 |
| 20260509102948 | 73 | 145 | 0.0 | 2.6 | 0.00 | 0.05 | 0.00 | 98 | 1007.8 |
| 20260509102848 | 73 | 145 | 0.0 | 2.6 | 0.00 | 0.05 | 0.00 | 98 | 1007.8 |
| 20260509102746 | 73 | 145 | 0.9 | 2.6 | 0.00 | 0.05 | 0.00 | 98 | 1007.9 |
| 20260509102644 | 73 | 145 | 0.9 | 2.6 | 0.00 | 0.05 | 0.00 | 98 | 1007.8 |
| 20260509102542 | 73 | 145 | 1.7 | 2.6 | 0.00 | 0.05 | 0.00 | 98 | 1007.9 |
| 20260509102441 | 73 | 172 | 1.7 | 2.6 | 0.00 | 0.05 | 0.00 | 98 | 1007.8 |
| 20260509102339 | 73 | 97 | 0.9 | 2.6 | 0.00 | 0.05 | 0.00 | 98 | 1007.7 |
| 20260509102239 | 73 | 97 | 0.9 | 2.6 | 0.00 | 0.05 | 0.00 | 98 | 1007.7 |
| 20260509102134 | 73 | 96 | 0.9 | 2.6 | 0.00 | 0.05 | 0.00 | 98 | 1007.6 |
| 20260509102032 | 73 | 96 | 0.9 | 2.6 | 0.00 | 0.05 | 0.00 | 98 | 1007.5 |
| 20260509101930 | 73 | 93 | 0.9 | 2.6 | 0.00 | 0.05 | 0.00 | 98 | 1007.6 |
| 20260509101832 | 73 | 92 | 0.9 | 2.6 | 0.00 | 0.05 | 0.00 | 98 | 1007.6 |
| 20260509101732 | 73 | 141 | 1.7 | 2.6 | 0.00 | 0.05 | 0.00 | 98 | 1007.6 |
| 20260509101633 | 73 | 147 | 1.7 | 2.6 | 0.00 | 0.05 | 0.00 | 98 | 1007.5 |
| 20260509101533 | 73 | 127 | 1.7 | 2.6 | 0.00 | 0.05 | 0.00 | 98 | 1007.5 |
| 20260509101432 | 73 | 137 | 1.7 | 2.6 | 0.00 | 0.05 | 0.00 | 98 | 1007.4 |
| 20260509101332 | 73 | 142 | 1.7 | 2.6 | 0.00 | 0.05 | 0.00 | 98 | 1007.4 |
| 20260509101230 | 73 | 142 | 1.7 | 2.6 | 0.00 | 0.05 | 0.00 | 98 | 1007.4 |
| 20260509101132 | 73 | 135 | 1.7 | 2.6 | 0.00 | 0.05 | 0.00 | 98 | 1007.4 |
| 20260509101030 | 73 | 90 | 0.9 | 2.6 | 0.00 | 0.05 | 0.00 | 98 | 1007.4 |
| 20260509100928 | 73 | 87 | 0.9 | 2.6 | 0.00 | 0.05 | 0.00 | 98 | 1007.4 |
| 20260509100827 | 73 | 87 | 0.9 | 2.6 | 0.00 | 0.05 | 0.00 | 98 | 1007.4 |
| 20260509100725 | 73 | 35 | 0.9 | 1.7 | 0.00 | 0.05 | 0.00 | 98 | 1007.4 |
| 20260509100624 | 73 | 35 | 0.9 | 1.7 | 0.00 | 0.05 | 0.00 | 98 | 1007.5 |
| 20260509100519 | 73 | 7 | 0.9 | 1.7 | 0.00 | 0.05 | 0.00 | 98 | 1007.4 |
| 20260509100419 | 73 | 338 | 0.9 | 1.7 | 0.00 | 0.05 | 0.00 | 98 | 1007.5 |
| 20260509100318 | 73 | 338 | 0.0 | 1.7 | 0.00 | 0.05 | 0.00 | 98 | 1007.4 |
| 20260509100218 | 73 | 338 | 0.9 | 1.7 | 0.00 | 0.05 | 0.00 | 98 | 1007.5 |
| 20260509100118 | 73 | 338 | 0.9 | 1.7 | 0.00 | 0.05 | 0.00 | 98 | 1007.5 |
| 20260509100016 | 73 | 338 | 0.9 | 1.7 | 0.00 | 0.05 | 0.00 | 98 | 1007.5 |
| 20260509095915 | 73 | 338 | 0.9 | 1.7 | 0.00 | 0.05 | 0.00 | 98 | 1007.4 |
| 20260509095815 | 73 | 338 | 0.9 | 1.7 | 0.00 | 0.05 | 0.00 | 98 | 1007.3 |
| 20260509095712 | 73 | 338 | 0.9 | 1.7 | 0.00 | 0.05 | 0.00 | 98 | 1007.3 |
| 20260509095611 | 73 | 338 | 0.0 | 1.7 | 0.00 | 0.05 | 0.00 | 98 | 1007.3 |
| 20260509095510 | 73 | 338 | 0.0 | 1.7 | 0.00 | 0.05 | 0.00 | 98 | 1007.3 |
| 20260509095411 | 73 | 338 | 0.9 | 1.7 | 0.00 | 0.05 | 0.00 | 98 | 1007.3 |
| 20260509095311 | 73 | 338 | 0.9 | 1.7 | 0.00 | 0.05 | 0.00 | 98 | 1007.3 |
| 20260509095210 | 73 | 338 | 0.0 | 1.7 | 0.00 | 0.05 | 0.00 | 98 | 1007.3 |
| 20260509095110 | 73 | 338 | 0.0 | 1.7 | 0.00 | 0.05 | 0.00 | 98 | 1007.2 |
| 20260509095010 | 73 | 338 | 0.0 | 1.7 | 0.00 | 0.05 | 0.00 | 98 | 1007.2 |
| 20260509094910 | 73 | 338 | 0.0 | 2.6 | 0.00 | 0.05 | 0.00 | 98 | 1007.2 |
| 20260509094810 | 73 | 338 | 0.0 | 2.6 | 0.00 | 0.05 | 0.00 | 98 | 1007.2 |
| 20260509094711 | 73 | 338 | 0.0 | 2.6 | 0.00 | 0.05 | 0.00 | 98 | 1007.2 |
| 20260509094610 | 73 | 338 | 0.0 | 2.6 | 0.00 | 0.05 | 0.00 | 98 | 1007.2 |
| 20260509094511 | 73 | 338 | 0.0 | 3.5 | 0.00 | 0.05 | 0.00 | 98 | 1007.2 |
| 20260509094412 | 73 | 338 | 0.0 | 3.5 | 0.00 | 0.05 | 0.00 | 98 | 1007.3 |
| 20260509094310 | 73 | 338 | 0.0 | 3.5 | 0.00 | 0.05 | 0.00 | 98 | 1007.4 |
| 20260509094211 | 73 | 338 | 0.9 | 3.5 | 0.00 | 0.05 | 0.00 | 98 | 1007.3 |
| 20260509094110 | 73 | 338 | 1.7 | 3.5 | 0.00 | 0.05 | 0.00 | 98 | 1007.3 |
| 20260509094013 | 73 | 338 | 1.7 | 3.5 | 0.00 | 0.05 | 0.00 | 98 | 1007.5 |
| 20260509093911 | 73 | 338 | 1.7 | 3.5 | 0.00 | 0.05 | 0.00 | 98 | 1007.5 |
| 20260509093810 | 73 | 338 | 1.7 | 3.5 | 0.00 | 0.05 | 0.00 | 98 | 1007.5 |
| 20260509093710 | 73 | 338 | 2.6 | 3.5 | 0.00 | 0.05 | 0.00 | 98 | 1007.5 |
| 20260509093611 | 73 | 338 | 2.6 | 3.5 | 0.00 | 0.05 | 0.00 | 98 | 1007.5 |
| 20260509093510 | 73 | 338 | 1.7 | 2.6 | 0.00 | 0.05 | 0.00 | 98 | 1007.5 |
| 20260509093410 | 73 | 338 | 1.7 | 2.6 | 0.00 | 0.05 | 0.00 | 98 | 1007.5 |
| 20260509093311 | 73 | 337 | 1.7 | 2.6 | 0.00 | 0.05 | 0.00 | 98 | 1007.5 |
| 20260509093211 | 73 | 337 | 0.9 | 2.6 | 0.00 | 0.05 | 0.00 | 98 | 1007.6 |
| 20260509093111 | 73 | 337 | 0.9 | 2.6 | 0.00 | 0.05 | 0.00 | 98 | 1007.6 |
| 20260509093011 | 73 | 337 | 1.7 | 2.6 | 0.00 | 0.05 | 0.00 | 98 | 1007.6 |
| 20260509092909 | 73 | 337 | 1.7 | 2.6 | 0.00 | 0.05 | 0.00 | 98 | 1007.7 |
| 20260509092810 | 73 | 337 | 1.7 | 2.6 | 0.00 | 0.05 | 0.00 | 98 | 1007.7 |
| 20260509092711 | 73 | 337 | 0.9 | 1.7 | 0.00 | 0.05 | 0.00 | 98 | 1007.7 |
| 20260509092611 | 73 | 337 | 0.9 | 1.7 | 0.00 | 0.05 | 0.00 | 98 | 1007.8 |
| 20260509092509 | 73 | 337 | 0.9 | 1.7 | 0.00 | 0.05 | 0.00 | 98 | 1007.7 |
| 20260509092409 | 73 | 337 | 0.9 | 1.7 | 0.00 | 0.05 | 0.00 | 98 | 1007.9 |
| 20260509092312 | 73 | 337 | 0.9 | 1.7 | 0.00 | 0.05 | 0.00 | 98 | 1008.0 |
| 20260509092210 | 73 | 337 | 0.9 | 1.7 | 0.00 | 0.05 | 0.00 | 98 | 1008.0 |
| 20260509092110 | 73 | 337 | 0.9 | 1.7 | 0.00 | 0.05 | 0.00 | 98 | 1008.0 |
| 20260509092010 | 73 | 337 | 0.9 | 1.7 | 0.00 | 0.05 | 0.00 | 98 | 1008.0 |
| 20260509091911 | 73 | 337 | 0.9 | 1.7 | 0.00 | 0.05 | 0.00 | 98 | 1007.9 |
| 20260509091810 | 73 | 337 | 0.9 | 1.7 | 0.00 | 0.05 | 0.00 | 98 | 1007.9 |
| 20260509091710 | 73 | 337 | 0.9 | 1.7 | 0.00 | 0.05 | 0.00 | 98 | 1007.9 |
| 20260509091610 | 73 | 337 | 0.0 | 1.7 | 0.00 | 0.05 | 0.00 | 98 | 1008.0 |
| 20260509091509 | 73 | 337 | 0.0 | 1.7 | 0.00 | 0.05 | 0.00 | 98 | 1008.0 |
| 20260509091410 | 73 | 337 | 0.0 | 2.6 | 0.00 | 0.05 | 0.00 | 98 | 1008.0 |
| 20260509091309 | 73 | 337 | 0.0 | 2.6 | 0.00 | 0.05 | 0.00 | 98 | 1007.9 |
| 20260509091211 | 73 | 337 | 0.0 | 2.6 | 0.00 | 0.05 | 0.00 | 98 | 1007.8 |
| 20260509091110 | 73 | 337 | 0.9 | 2.6 | 0.00 | 0.05 | 0.00 | 98 | 1007.8 |
| 20260509091010 | 73 | 337 | 0.9 | 2.6 | 0.00 | 0.05 | 0.00 | 98 | 1007.8 |
| 20260509090910 | 73 | 337 | 1.7 | 2.6 | 0.00 | 0.05 | 0.00 | 98 | 1007.8 |
| 20260509090809 | 73 | 337 | 1.7 | 2.6 | 0.00 | 0.05 | 0.00 | 98 | 1007.8 |
| 20260509090710 | 73 | 337 | 1.7 | 2.6 | 0.00 | 0.05 | 0.00 | 98 | 1007.8 |
| 20260509090610 | 73 | 337 | 1.7 | 2.6 | 0.00 | 0.05 | 0.00 | 98 | 1007.8 |
| 20260509090510 | 73 | 337 | 1.7 | 2.6 | 0.00 | 0.05 | 0.00 | 98 | 1007.8 |
| 20260509090409 | 73 | 337 | 1.7 | 2.6 | 0.00 | 0.05 | 0.00 | 98 | 1007.8 |
| 20260509090309 | 73 | 337 | 1.7 | 2.6 | 0.00 | 0.05 | 0.00 | 98 | 1007.9 |
| 20260509090211 | 73 | 341 | 2.6 | 2.6 | 0.00 | 0.05 | 0.00 | 98 | 1007.9 |
| 20260509090110 | 73 | 347 | 1.7 | 2.6 | 0.00 | 0.05 | 0.00 | 98 | 1007.9 |
| 20260509090009 | 73 | 353 | 1.7 | 2.6 | 0.00 | 0.05 | 0.00 | 98 | 1007.9 |
| 20260509085910 | 73 | 23 | 1.7 | 2.6 | 0.00 | 0.05 | 0.00 | 98 | 1007.8 |
| 20260509085809 | 73 | 23 | 1.7 | 2.6 | 0.00 | 0.05 | 0.00 | 98 | 1007.8 |
| 20260509085709 | 73 | 23 | 1.7 | 2.6 | 0.00 | 0.05 | 0.00 | 98 | 1007.8 |
| 20260509085609 | 73 | 23 | 1.7 | 2.6 | 0.00 | 0.05 | 0.00 | 97 | 1007.7 |
| 20260509085510 | 73 | 23 | 1.7 | 2.6 | 0.00 | 0.05 | 0.00 | 97 | 1007.7 |
| 20260509085409 | 73 | 72 | 0.9 | 1.7 | 0.00 | 0.05 | 0.00 | 97 | 1007.7 |
| 20260509085308 | 73 | 72 | 0.0 | 0.0 | 0.00 | 0.05 | 0.00 | 97 | 1007.6 |
| 20260509085211 | 73 | 72 | 0.0 | 0.0 | 0.00 | 0.05 | 0.00 | 98 | 1007.6 |
| 20260509085109 | 73 | 72 | 0.0 | 0.0 | 0.00 | 0.05 | 0.00 | 98 | 1007.6 |
| 20260509085009 | 73 | 72 | 0.0 | 0.0 | 0.00 | 0.05 | 0.00 | 98 | 1007.6 |
| 20260509084909 | 73 | 72 | 0.0 | 0.0 | 0.00 | 0.05 | 0.00 | 98 | 1007.6 |
| 20260509084811 | 73 | 72 | 0.0 | 0.0 | 0.00 | 0.05 | 0.00 | 98 | 1007.6 |
| 20260509084708 | 73 | 72 | 0.0 | 0.0 | 0.00 | 0.05 | 0.00 | 98 | 1007.6 |
| 20260509084609 | 73 | 72 | 0.0 | 0.0 | 0.00 | 0.05 | 0.00 | 98 | 1007.6 |
| 20260509084510 | 73 | 72 | 0.0 | 0.0 | 0.00 | 0.05 | 0.00 | 98 | 1007.7 |
| 20260509084408 | 73 | 72 | 0.0 | 0.0 | 0.00 | 0.05 | 0.00 | 98 | 1007.7 |
| 20260509084309 | 73 | 72 | 0.0 | 0.9 | 0.00 | 0.05 | 0.00 | 98 | 1007.6 |
| 20260509084210 | 73 | 72 | 0.0 | 0.9 | 0.00 | 0.05 | 0.00 | 98 | 1007.7 |
| 20260509084111 | 73 | 72 | 0.0 | 1.7 | 0.00 | 0.05 | 0.00 | 98 | 1007.7 |
| 20260509084008 | 73 | 72 | 0.0 | 1.7 | 0.00 | 0.05 | 0.00 | 98 | 1007.8 |
| 20260509083909 | 73 | 72 | 0.0 | 1.7 | 0.00 | 0.05 | 0.00 | 98 | 1007.7 |
| 20260509083809 | 73 | 72 | 0.0 | 1.7 | 0.00 | 0.05 | 0.00 | 98 | 1007.7 |
| 20260509083709 | 73 | 72 | 0.0 | 1.7 | 0.00 | 0.05 | 0.00 | 98 | 1007.7 |
| 20260509083608 | 73 | 72 | 0.0 | 1.7 | 0.00 | 0.05 | 0.00 | 98 | 1007.6 |
| 20260509083509 | 73 | 72 | 0.0 | 1.7 | 0.00 | 0.05 | 0.00 | 98 | 1007.6 |
| 20260509083410 | 73 | 72 | 0.0 | 1.7 | 0.00 | 0.05 | 0.00 | 98 | 1007.5 |
| 20260509083308 | 73 | 72 | 0.9 | 1.7 | 0.00 | 0.05 | 0.00 | 97 | 1007.6 |
| 20260509083208 | 73 | 72 | 0.9 | 1.7 | 0.00 | 0.05 | 0.00 | 97 | 1007.7 |
| 20260509083109 | 73 | 72 | 0.9 | 1.7 | 0.00 | 0.05 | 0.00 | 97 | 1007.7 |
| 20260509083008 | 73 | 72 | 0.9 | 1.7 | 0.00 | 0.05 | 0.00 | 97 | 1007.7 |
| 20260509082909 | 73 | 72 | 0.9 | 1.7 | 0.00 | 0.05 | 0.00 | 97 | 1007.6 |
| 20260509082809 | 73 | 72 | 0.9 | 1.7 | 0.00 | 0.05 | 0.00 | 97 | 1007.6 |
| 20260509082708 | 73 | 72 | 1.7 | 1.7 | 0.00 | 0.05 | 0.00 | 97 | 1007.6 |
| 20260509082609 | 73 | 72 | 0.9 | 1.7 | 0.00 | 0.05 | 0.00 | 98 | 1007.6 |
| 20260509082508 | 73 | 72 | 0.0 | 1.7 | 0.00 | 0.05 | 0.00 | 98 | 1007.6 |
| 20260509082409 | 73 | 72 | 0.0 | 0.0 | 0.00 | 0.05 | 0.00 | 98 | 1007.6 |
| 20260509082308 | 73 | 72 | 0.0 | 0.9 | 0.00 | 0.05 | 0.00 | 98 | 1007.6 |
| 20260509082208 | 73 | 72 | 0.0 | 0.9 | 0.00 | 0.05 | 0.00 | 98 | 1007.7 |
| 20260509082109 | 73 | 72 | 0.0 | 0.9 | 0.00 | 0.05 | 0.00 | 98 | 1007.7 |
| 20260509082009 | 73 | 72 | 0.0 | 0.9 | 0.00 | 0.05 | 0.00 | 98 | 1007.7 |
| 20260509081908 | 73 | 72 | 0.0 | 0.9 | 0.00 | 0.05 | 0.00 | 98 | 1007.7 |
| 20260509081808 | 73 | 72 | 0.0 | 0.9 | 0.00 | 0.05 | 0.00 | 98 | 1007.7 |
| 20260509081710 | 73 | 72 | 0.0 | 0.9 | 0.00 | 0.05 | 0.00 | 98 | 1007.7 |
| 20260509081609 | 73 | 72 | 0.0 | 0.9 | 0.00 | 0.05 | 0.00 | 98 | 1007.6 |
| 20260509081508 | 73 | 72 | 0.0 | 0.9 | 0.00 | 0.05 | 0.00 | 98 | 1007.6 |
| 20260509081409 | 73 | 72 | 0.0 | 1.7 | 0.00 | 0.05 | 0.00 | 98 | 1007.6 |
| 20260509081308 | 73 | 72 | 0.0 | 1.7 | 0.00 | 0.05 | 0.00 | 98 | 1007.6 |
| 20260509081208 | 73 | 72 | 0.0 | 1.7 | 0.00 | 0.05 | 0.00 | 98 | 1007.6 |
| 20260509081108 | 73 | 72 | 0.0 | 1.7 | 0.00 | 0.05 | 0.00 | 98 | 1007.6 |
| 20260509081011 | 73 | 72 | 0.0 | 1.7 | 0.00 | 0.05 | 0.00 | 98 | 1007.6 |
| 20260509080908 | 73 | 72 | 0.0 | 2.6 | 0.00 | 0.05 | 0.00 | 98 | 1007.7 |
| 20260509080811 | 73 | 72 | 0.0 | 2.6 | 0.00 | 0.05 | 0.00 | 98 | 1007.7 |
| 20260509080709 | 74 | 72 | 0.9 | 2.6 | 0.00 | 0.05 | 0.00 | 98 | 1007.7 |
| 20260509080609 | 74 | 72 | 0.9 | 2.6 | 0.00 | 0.05 | 0.00 | 98 | 1007.7 |
| 20260509080509 | 73 | 72 | 0.9 | 2.6 | 0.00 | 0.05 | 0.00 | 98 | 1007.7 |
| 20260509080409 | 73 | 72 | 0.9 | 2.6 | 0.00 | 0.05 | 0.00 | 98 | 1007.8 |
| 20260509080309 | 73 | 72 | 1.7 | 2.6 | 0.00 | 0.05 | 0.00 | 98 | 1007.7 |
| 20260509080208 | 73 | 72 | 1.7 | 2.6 | 0.00 | 0.05 | 0.00 | 98 | 1007.7 |
| 20260509080111 | 73 | 72 | 1.7 | 2.6 | 0.00 | 0.05 | 0.00 | 98 | 1007.6 |
| 20260509080011 | 73 | 72 | 1.7 | 2.6 | 0.00 | 0.05 | 0.00 | 98 | 1007.7 |
| 20260509075908 | 73 | 72 | 1.7 | 2.6 | 0.00 | 0.05 | 0.00 | 98 | 1007.7 |
| 20260509075807 | 73 | 72 | 0.9 | 2.6 | 0.00 | 0.05 | 0.00 | 98 | 1007.7 |
| 20260509075708 | 73 | 72 | 1.7 | 2.6 | 0.00 | 0.05 | 0.00 | 98 | 1007.7 |
| 20260509075610 | 73 | 72 | 1.7 | 2.6 | 0.00 | 0.05 | 0.00 | 98 | 1007.8 |
| 20260509075509 | 73 | 72 | 0.9 | 2.6 | 0.00 | 0.05 | 0.00 | 98 | 1007.7 |
| 20260509075409 | 73 | 72 | 0.0 | 2.6 | 0.00 | 0.05 | 0.00 | 98 | 1007.7 |
| 20260509075310 | 73 | 72 | 0.0 | 2.6 | 0.00 | 0.05 | 0.00 | 98 | 1007.7 |
| 20260509075209 | 73 | 72 | 0.0 | 2.6 | 0.00 | 0.05 | 0.00 | 98 | 1007.7 |
| 20260509075109 | 73 | 72 | 0.0 | 2.6 | 0.00 | 0.05 | 0.00 | 98 | 1007.7 |
| 20260509075008 | 73 | 72 | 0.0 | 2.6 | 0.00 | 0.05 | 0.00 | 98 | 1007.7 |
| 20260509074909 | 73 | 72 | 0.9 | 2.6 | 0.00 | 0.05 | 0.00 | 98 | 1007.7 |
| 20260509074808 | 73 | 72 | 1.7 | 2.6 | 0.00 | 0.05 | 0.00 | 98 | 1007.7 |
| 20260509074708 | 73 | 72 | 1.7 | 2.6 | 0.00 | 0.05 | 0.00 | 98 | 1007.7 |
| 20260509074609 | 73 | 72 | 1.7 | 2.6 | 0.00 | 0.05 | 0.00 | 98 | 1007.7 |
| 20260509074508 | 73 | 72 | 1.7 | 2.6 | 0.00 | 0.05 | 0.00 | 98 | 1007.7 |
| 20260509074408 | 73 | 72 | 1.7 | 2.6 | 0.00 | 0.05 | 0.00 | 98 | 1007.7 |
| 20260509074307 | 73 | 72 | 0.9 | 1.7 | 0.00 | 0.05 | 0.00 | 98 | 1007.8 |
| 20260509074205 | 73 | 72 | 0.0 | 1.7 | 0.00 | 0.05 | 0.00 | 97 | 1007.8 |
| 20260509074104 | 73 | 72 | 0.0 | 2.6 | 0.00 | 0.05 | 0.00 | 98 | 1007.8 |
| 20260509074003 | 73 | 72 | 0.0 | 2.6 | 0.00 | 0.05 | 0.00 | 98 | 1007.8 |
| 20260509073904 | 74 | 72 | 0.0 | 2.6 | 0.00 | 0.05 | 0.00 | 98 | 1007.9 |
| 20260509073802 | 74 | 72 | 0.9 | 2.6 | 0.00 | 0.05 | 0.00 | 98 | 1007.8 |
| 20260509073702 | 73 | 72 | 0.9 | 2.6 | 0.00 | 0.05 | 0.00 | 97 | 1007.9 |
| 20260509073602 | 74 | 72 | 1.7 | 2.6 | 0.00 | 0.05 | 0.00 | 98 | 1007.9 |
| 20260509073503 | 73 | 72 | 1.7 | 2.6 | 0.00 | 0.05 | 0.00 | 98 | 1007.9 |
| 20260509073402 | 73 | 72 | 1.7 | 2.6 | 0.00 | 0.05 | 0.00 | 98 | 1008.0 |
| 20260509073302 | 73 | 72 | 1.7 | 2.6 | 0.00 | 0.05 | 0.00 | 98 | 1007.9 |
| 20260509073203 | 73 | 72 | 1.7 | 2.6 | 0.00 | 0.05 | 0.00 | 98 | 1008.0 |
| 20260509073102 | 73 | 72 | 1.7 | 1.7 | 0.00 | 0.05 | 0.00 | 97 | 1008.0 |
| 20260509073002 | 73 | 72 | 0.9 | 1.7 | 0.00 | 0.05 | 0.00 | 98 | 1008.0 |
| 20260509072903 | 73 | 72 | 0.0 | 1.7 | 0.00 | 0.05 | 0.00 | 98 | 1008.0 |
| 20260509072803 | 73 | 72 | 0.0 | 1.7 | 0.00 | 0.05 | 0.00 | 98 | 1008.1 |
| 20260509072703 | 73 | 72 | 0.0 | 1.7 | 0.00 | 0.05 | 0.00 | 98 | 1008.1 |
| 20260509072602 | 73 | 72 | 0.0 | 1.7 | 0.00 | 0.05 | 0.00 | 98 | 1008.2 |
| 20260509072505 | 73 | 72 | 0.0 | 1.7 | 0.00 | 0.05 | 0.00 | 98 | 1008.2 |
| 20260509072402 | 73 | 72 | 0.0 | 1.7 | 0.00 | 0.05 | 0.00 | 98 | 1008.2 |
| 20260509072306 | 73 | 72 | 0.0 | 1.7 | 0.00 | 0.05 | 0.00 | 98 | 1008.2 |
| 20260509072204 | 73 | 72 | 0.0 | 1.7 | 0.00 | 0.05 | 0.00 | 98 | 1008.2 |
| 20260509072103 | 73 | 72 | 0.9 | 1.7 | 0.00 | 0.05 | 0.00 | 98 | 1008.2 |
| 20260509072004 | 73 | 72 | 0.9 | 1.7 | 0.00 | 0.05 | 0.00 | 98 | 1008.2 |
| 20260509071902 | 73 | 72 | 0.0 | 1.7 | 0.00 | 0.05 | 0.00 | 98 | 1008.2 |
| 20260509071802 | 73 | 72 | 0.0 | 0.0 | 0.00 | 0.05 | 0.00 | 98 | 1008.3 |
| 20260509071702 | 73 | 72 | 0.0 | 0.0 | 0.00 | 0.05 | 0.00 | 98 | 1008.2 |
| 20260509071601 | 73 | 72 | 0.0 | 0.0 | 0.00 | 0.05 | 0.00 | 98 | 1008.2 |
| 20260509071503 | 73 | 72 | 0.0 | 0.0 | 0.00 | 0.05 | 0.00 | 98 | 1008.2 |
| 20260509071402 | 73 | 72 | 0.0 | 0.0 | 0.00 | 0.05 | 0.00 | 98 | 1008.1 |
| 20260509071300 | 73 | 72 | 0.0 | 0.0 | 0.00 | 0.05 | 0.00 | 98 | 1008.2 |
| 20260509071200 | 73 | 72 | 0.0 | 0.0 | 0.00 | 0.05 | 0.00 | 98 | 1008.1 |
| 20260509071058 | 73 | 72 | 0.0 | 0.0 | 0.00 | 0.05 | 0.00 | 98 | 1008.2 |
| 20260509070955 | 73 | 72 | 0.0 | 0.0 | 0.00 | 0.05 | 0.00 | 98 | 1008.1 |
| 20260509070855 | 73 | 72 | 0.0 | 0.0 | 0.00 | 0.05 | 0.00 | 98 | 1008.0 |
| 20260509070752 | 73 | 72 | 0.0 | 0.0 | 0.00 | 0.05 | 0.00 | 98 | 1008.0 |
| 20260509070652 | 73 | 72 | 0.0 | 0.0 | 0.00 | 0.05 | 0.00 | 98 | 1008.0 |
| 20260509070553 | 73 | 72 | 0.0 | 0.0 | 0.00 | 0.05 | 0.00 | 98 | 1008.0 |
| 20260509070547 | 73 | 72 | 0.0 | 0.0 | 0.00 | 0.05 | 0.00 | 98 | 1008.0 |
| 20260509070526 | 73 | 72 | 0.0 | 0.0 | 0.00 | 0.05 | 0.00 | 98 | 1008.0 |
| 20260509070510 | 73 | 72 | 0.0 | 0.0 | 0.00 | 0.05 | 0.00 | 98 | 1008.0 |
| 20260509070140 | 73 | 72 | 0.0 | 0.0 | 0.00 | 0.05 | 0.00 | 98 | 1008.1 |
| 20260509070042 | 73 | 72 | 0.0 | 0.0 | 0.00 | 0.05 | 0.00 | 97 | 1007.9 |
| 20260509065940 | 73 | 72 | 0.0 | 0.0 | 0.00 | 0.05 | 0.00 | 97 | 1007.9 |
| 20260509065839 | 73 | 72 | 0.0 | 0.0 | 0.00 | 0.05 | 0.00 | 97 | 1007.9 |
| 20260509065738 | 73 | 72 | 0.0 | 0.0 | 0.00 | 0.05 | 0.00 | 98 | 1007.9 |
| 20260509065636 | 73 | 72 | 0.0 | 0.0 | 0.00 | 0.05 | 0.00 | 98 | 1007.9 |
| 20260509065532 | 73 | 72 | 0.0 | 0.0 | 0.00 | 0.05 | 0.00 | 98 | 1007.9 |
| 20260509065431 | 73 | 72 | 0.0 | 0.9 | 0.00 | 0.05 | 0.00 | 98 | 1007.9 |
| 20260509065332 | 73 | 72 | 0.0 | 0.9 | 0.00 | 0.05 | 0.00 | 98 | 1007.9 |
| 20260509065231 | 73 | 72 | 0.0 | 0.9 | 0.00 | 0.05 | 0.00 | 98 | 1007.9 |
| 20260509065131 | 73 | 72 | 0.0 | 0.9 | 0.00 | 0.05 | 0.00 | 98 | 1007.9 |
| 20260509065031 | 73 | 72 | 0.0 | 0.9 | 0.00 | 0.05 | 0.00 | 97 | 1007.9 |
| 20260509064931 | 73 | 72 | 0.0 | 0.9 | 0.00 | 0.05 | 0.00 | 98 | 1007.9 |
| 20260509064832 | 73 | 72 | 0.0 | 0.9 | 0.00 | 0.05 | 0.00 | 98 | 1007.9 |
| 20260509064730 | 73 | 72 | 0.0 | 0.9 | 0.00 | 0.05 | 0.00 | 97 | 1007.9 |
| 20260509064631 | 73 | 72 | 0.0 | 0.9 | 0.00 | 0.05 | 0.00 | 97 | 1007.9 |
| 20260509064532 | 73 | 72 | 0.0 | 0.9 | 0.00 | 0.05 | 0.00 | 97 | 1008.0 |
| 20260509064431 | 73 | 72 | 0.0 | 0.9 | 0.00 | 0.05 | 0.00 | 97 | 1008.0 |
| 20260509064332 | 73 | 72 | 0.0 | 0.9 | 0.00 | 0.05 | 0.00 | 97 | 1008.0 |
| 20260509064232 | 73 | 72 | 0.0 | 0.9 | 0.00 | 0.05 | 0.00 | 97 | 1008.0 |
| 20260509064131 | 73 | 72 | 0.0 | 0.9 | 0.00 | 0.05 | 0.00 | 98 | 1008.0 |
| 20260509064031 | 73 | 72 | 0.0 | 0.9 | 0.00 | 0.05 | 0.00 | 97 | 1008.0 |
| 20260509063932 | 73 | 72 | 0.0 | 0.9 | 0.00 | 0.05 | 0.00 | 97 | 1008.0 |
| 20260509063832 | 73 | 72 | 0.0 | 0.0 | 0.00 | 0.05 | 0.00 | 97 | 1008.0 |
| 20260509063731 | 73 | 72 | 0.0 | 0.0 | 0.00 | 0.05 | 0.00 | 97 | 1008.0 |
| 20260509063632 | 73 | 72 | 0.0 | 0.0 | 0.00 | 0.05 | 0.00 | 97 | 1008.0 |
| 20260509063530 | 73 | 72 | 0.0 | 0.0 | 0.00 | 0.05 | 0.00 | 97 | 1008.0 |
| 20260509063431 | 73 | 72 | 0.0 | 0.0 | 0.00 | 0.05 | 0.00 | 97 | 1008.2 |
| 20260509063333 | 73 | 72 | 0.0 | 0.0 | 0.00 | 0.05 | 0.00 | 97 | 1008.1 |
| 20260509063231 | 73 | 72 | 0.0 | 0.0 | 0.00 | 0.05 | 0.00 | 97 | 1008.0 |
| 20260509063131 | 73 | 72 | 0.0 | 0.0 | 0.00 | 0.05 | 0.00 | 97 | 1008.1 |
| 20260509063031 | 73 | 72 | 0.0 | 0.0 | 0.00 | 0.05 | 0.00 | 97 | 1008.1 |
| 20260509062932 | 73 | 72 | 0.0 | 0.0 | 0.00 | 0.05 | 0.00 | 97 | 1008.2 |
| 20260509062830 | 73 | 72 | 0.0 | 0.0 | 0.00 | 0.05 | 0.00 | 97 | 1008.1 |
| 20260509062729 | 73 | 72 | 0.0 | 0.0 | 0.00 | 0.05 | 0.00 | 97 | 1008.2 |
| 20260509062627 | 73 | 72 | 0.0 | 0.0 | 0.00 | 0.05 | 0.00 | 97 | 1008.3 |
| 20260509062515 | 73 | 72 | 0.0 | 0.0 | 0.00 | 0.05 | 0.00 | 97 | 1008.2 |
| 20260509062415 | 73 | 72 | 0.0 | 0.0 | 0.00 | 0.05 | 0.00 | 97 | 1008.2 |
| 20260509062313 | 73 | 72 | 0.0 | 0.0 | 0.00 | 0.05 | 0.00 | 97 | 1008.2 |
| 20260509062211 | 73 | 72 | 0.0 | 0.0 | 0.00 | 0.05 | 0.00 | 97 | 1008.3 |
| 20260509062110 | 73 | 72 | 0.0 | 0.0 | 0.00 | 0.05 | 0.00 | 97 | 1008.3 |
| 20260509062009 | 73 | 72 | 0.0 | 0.9 | 0.00 | 0.05 | 0.00 | 97 | 1008.3 |
| 20260509061908 | 73 | 72 | 0.0 | 1.7 | 0.00 | 0.05 | 0.00 | 97 | 1008.3 |
| 20260509061805 | 73 | 72 | 0.0 | 1.7 | 0.00 | 0.05 | 0.00 | 97 | 1008.2 |
| 20260509061705 | 73 | 72 | 0.0 | 1.7 | 0.00 | 0.05 | 0.00 | 97 | 1008.2 |
| 20260509061605 | 73 | 72 | 0.0 | 1.7 | 0.00 | 0.05 | 0.00 | 97 | 1008.2 |
| 20260509061505 | 73 | 72 | 0.0 | 1.7 | 0.00 | 0.05 | 0.00 | 97 | 1008.2 |
| 20260509061405 | 73 | 72 | 0.0 | 1.7 | 0.00 | 0.05 | 0.00 | 97 | 1008.1 |
| 20260509061306 | 73 | 72 | 0.0 | 1.7 | 0.00 | 0.05 | 0.00 | 97 | 1008.1 |
| 20260509061206 | 73 | 72 | 0.0 | 1.7 | 0.00 | 0.05 | 0.00 | 97 | 1008.1 |
| 20260509061106 | 73 | 72 | 0.0 | 1.7 | 0.00 | 0.05 | 0.00 | 97 | 1008.2 |
| 20260509061006 | 73 | 72 | 0.9 | 1.7 | 0.00 | 0.05 | 0.00 | 97 | 1008.2 |
| 20260509060905 | 73 | 72 | 0.9 | 1.7 | 0.00 | 0.05 | 0.00 | 97 | 1008.2 |
| 20260509060806 | 73 | 72 | 0.9 | 1.7 | 0.00 | 0.05 | 0.00 | 97 | 1008.3 |
| 20260509060705 | 73 | 72 | 0.9 | 1.7 | 0.00 | 0.05 | 0.00 | 97 | 1008.3 |
| 20260509060605 | 73 | 72 | 0.9 | 1.7 | 0.00 | 0.05 | 0.00 | 97 | 1008.4 |
| 20260509060506 | 73 | 72 | 1.7 | 1.7 | 0.00 | 0.05 | 0.00 | 97 | 1008.4 |
| 20260509060405 | 73 | 72 | 1.7 | 1.7 | 0.00 | 0.05 | 0.00 | 97 | 1008.4 |
| 20260509060305 | 73 | 72 | 0.9 | 1.7 | 0.00 | 0.05 | 0.00 | 97 | 1008.3 |
| 20260509060208 | 73 | 72 | 0.0 | 1.7 | 0.00 | 0.05 | 0.00 | 97 | 1008.5 |
| 20260509060106 | 73 | 72 | 0.0 | 1.7 | 0.00 | 0.05 | 0.00 | 97 | 1008.4 |
| 20260509060006 | 73 | 72 | 0.0 | 1.7 | 0.00 | 0.05 | 0.00 | 97 | 1008.4 |
| 20260509055905 | 73 | 72 | 0.0 | 1.7 | 0.00 | 0.05 | 0.00 | 97 | 1008.5 |
| 20260509055806 | 73 | 72 | 0.0 | 1.7 | 0.00 | 0.05 | 0.00 | 97 | 1008.5 |
| 20260509055704 | 73 | 72 | 0.0 | 2.6 | 0.00 | 0.05 | 0.00 | 97 | 1008.4 |
| 20260509055605 | 73 | 72 | 0.0 | 2.6 | 0.00 | 0.05 | 0.00 | 97 | 1008.4 |
| 20260509055506 | 73 | 72 | 0.9 | 2.6 | 0.00 | 0.05 | 0.00 | 97 | 1008.4 |
| 20260509055405 | 73 | 72 | 0.9 | 2.6 | 0.00 | 0.05 | 0.00 | 97 | 1008.4 |
| 20260509055307 | 73 | 72 | 0.9 | 2.6 | 0.00 | 0.05 | 0.00 | 97 | 1008.4 |
| 20260509055205 | 73 | 72 | 0.0 | 2.6 | 0.00 | 0.05 | 0.00 | 97 | 1008.4 |
| 20260509055107 | 73 | 72 | 0.9 | 2.6 | 0.00 | 0.05 | 0.00 | 97 | 1008.4 |
| 20260509055005 | 73 | 72 | 0.9 | 2.6 | 0.00 | 0.05 | 0.00 | 97 | 1008.3 |
| 20260509054905 | 73 | 72 | 1.7 | 2.6 | 0.00 | 0.05 | 0.00 | 97 | 1008.4 |
| 20260509054805 | 73 | 72 | 1.7 | 2.6 | 0.00 | 0.05 | 0.00 | 97 | 1008.4 |
| 20260509054705 | 73 | 72 | 1.7 | 2.6 | 0.00 | 0.05 | 0.00 | 97 | 1008.4 |
| 20260509054605 | 73 | 69 | 2.6 | 2.6 | 0.00 | 0.05 | 0.00 | 97 | 1008.3 |
| 20260509054505 | 73 | 103 | 1.7 | 3.5 | 0.00 | 0.05 | 0.00 | 97 | 1008.4 |
| 20260509054405 | 73 | 103 | 1.7 | 3.5 | 0.00 | 0.05 | 0.00 | 97 | 1008.3 |
| 20260509054304 | 73 | 103 | 1.7 | 3.5 | 0.00 | 0.05 | 0.00 | 97 | 1008.3 |
| 20260509054205 | 73 | 103 | 1.7 | 3.5 | 0.00 | 0.05 | 0.00 | 97 | 1008.3 |
| 20260509054106 | 73 | 104 | 1.7 | 3.5 | 0.00 | 0.05 | 0.00 | 97 | 1008.3 |
| 20260509054004 | 73 | 104 | 1.7 | 3.5 | 0.00 | 0.05 | 0.00 | 97 | 1008.3 |
| 20260509053904 | 73 | 104 | 1.7 | 3.5 | 0.00 | 0.05 | 0.00 | 97 | 1008.4 |
| 20260509053805 | 73 | 106 | 1.7 | 3.5 | 0.00 | 0.05 | 0.00 | 97 | 1008.4 |
| 20260509053705 | 73 | 104 | 2.6 | 3.5 | 0.00 | 0.05 | 0.00 | 97 | 1008.4 |
| 20260509053604 | 73 | 103 | 2.6 | 4.3 | 0.00 | 0.05 | 0.00 | 97 | 1008.5 |
| 20260509053505 | 73 | 106 | 1.7 | 4.3 | 0.00 | 0.05 | 0.00 | 97 | 1008.4 |
| 20260509053406 | 73 | 109 | 1.7 | 4.3 | 0.00 | 0.05 | 0.00 | 97 | 1008.4 |
| 20260509053305 | 73 | 109 | 0.9 | 4.3 | 0.00 | 0.05 | 0.00 | 97 | 1008.4 |
| 20260509053205 | 73 | 109 | 0.9 | 4.3 | 0.00 | 0.05 | 0.00 | 97 | 1008.4 |
| 20260509053104 | 73 | 109 | 1.7 | 4.3 | 0.00 | 0.05 | 0.00 | 97 | 1008.4 |
| 20260509053006 | 73 | 109 | 1.7 | 4.3 | 0.00 | 0.05 | 0.00 | 97 | 1008.4 |
| 20260509052905 | 73 | 110 | 2.6 | 4.3 | 0.00 | 0.05 | 0.00 | 97 | 1008.4 |
| 20260509052805 | 73 | 110 | 2.6 | 4.3 | 0.00 | 0.05 | 0.00 | 97 | 1008.5 |
| 20260509052705 | 73 | 109 | 3.5 | 4.3 | 0.00 | 0.05 | 0.00 | 97 | 1008.5 |
| 20260509052604 | 73 | 109 | 1.7 | 4.3 | 0.00 | 0.05 | 0.00 | 97 | 1008.5 |
| 20260509052505 | 73 | 116 | 0.9 | 4.3 | 0.00 | 0.05 | 0.00 | 97 | 1008.5 |
| 20260509052405 | 73 | 145 | 1.7 | 5.2 | 0.00 | 0.05 | 0.00 | 97 | 1008.5 |
| 20260509052307 | 73 | 145 | 2.6 | 5.2 | 0.00 | 0.05 | 0.00 | 97 | 1008.5 |
| 20260509052204 | 73 | 89 | 1.7 | 5.2 | 0.00 | 0.05 | 0.00 | 97 | 1008.5 |
| 20260509052104 | 73 | 111 | 1.7 | 5.2 | 0.00 | 0.05 | 0.00 | 97 | 1008.5 |
| 20260509052004 | 73 | 111 | 1.7 | 5.2 | 0.00 | 0.05 | 0.00 | 97 | 1008.5 |
| 20260509051905 | 73 | 111 | 1.7 | 5.2 | 0.00 | 0.05 | 0.00 | 97 | 1008.5 |
| 20260509051805 | 73 | 113 | 1.7 | 5.2 | 0.00 | 0.05 | 0.00 | 97 | 1008.5 |
| 20260509051705 | 73 | 113 | 2.6 | 5.2 | 0.00 | 0.05 | 0.00 | 97 | 1008.5 |
| 20260509051605 | 73 | 109 | 2.6 | 5.2 | 0.00 | 0.05 | 0.00 | 97 | 1008.5 |
| 20260509051504 | 73 | 113 | 1.7 | 5.2 | 0.00 | 0.05 | 0.00 | 97 | 1008.5 |
| 20260509051405 | 73 | 123 | 1.7 | 4.3 | 0.00 | 0.05 | 0.00 | 97 | 1008.5 |
| 20260509051304 | 73 | 102 | 1.7 | 4.3 | 0.00 | 0.05 | 0.00 | 97 | 1008.5 |
| 20260509051204 | 73 | 102 | 2.6 | 4.3 | 0.00 | 0.05 | 0.00 | 97 | 1008.4 |
| 20260509051106 | 73 | 100 | 1.7 | 4.3 | 0.00 | 0.05 | 0.00 | 97 | 1008.5 |
| 20260509051005 | 73 | 100 | 2.6 | 4.3 | 0.00 | 0.05 | 0.00 | 97 | 1008.5 |
| 20260509050904 | 73 | 107 | 2.6 | 4.3 | 0.00 | 0.05 | 0.00 | 97 | 1008.5 |
| 20260509050804 | 73 | 104 | 2.6 | 4.3 | 0.00 | 0.05 | 0.00 | 97 | 1008.4 |
| 20260509050704 | 73 | 97 | 2.6 | 4.3 | 0.00 | 0.05 | 0.00 | 97 | 1008.5 |
| 20260509050604 | 73 | 97 | 2.6 | 4.3 | 0.00 | 0.05 | 0.00 | 97 | 1008.5 |
| 20260509050504 | 73 | 80 | 2.6 | 4.3 | 0.00 | 0.05 | 0.00 | 97 | 1008.6 |
| 20260509050404 | 73 | 80 | 2.6 | 4.3 | 0.00 | 0.05 | 0.00 | 97 | 1008.5 |
| 20260509050303 | 73 | 89 | 3.5 | 4.3 | 0.00 | 0.05 | 0.00 | 97 | 1008.5 |
| 20260509050204 | 73 | 89 | 3.5 | 4.3 | 0.00 | 0.05 | 0.00 | 97 | 1008.5 |
| 20260509050105 | 73 | 89 | 3.5 | 4.3 | 0.00 | 0.05 | 0.00 | 97 | 1008.5 |
| 20260509050003 | 73 | 87 | 3.5 | 4.3 | 0.00 | 0.05 | 0.00 | 97 | 1008.5 |
| 20260509045903 | 73 | 106 | 2.6 | 4.3 | 0.00 | 0.05 | 0.05 | 97 | 1008.5 |
| 20260509045803 | 73 | 92 | 2.6 | 4.3 | 0.00 | 0.05 | 0.05 | 97 | 1008.6 |
| 20260509045702 | 73 | 92 | 3.5 | 4.3 | 0.00 | 0.05 | 0.05 | 97 | 1008.5 |
| 20260509045602 | 73 | 99 | 3.5 | 4.3 | 0.00 | 0.05 | 0.05 | 97 | 1008.6 |
| 20260509045503 | 73 | 102 | 2.6 | 3.5 | 0.00 | 0.05 | 0.05 | 97 | 1008.6 |
| 20260509045402 | 73 | 96 | 2.6 | 3.5 | 0.00 | 0.05 | 0.05 | 97 | 1008.5 |
| 20260509045301 | 73 | 92 | 1.7 | 3.5 | 0.00 | 0.05 | 0.05 | 97 | 1008.6 |
| 20260509045202 | 73 | 97 | 1.7 | 3.5 | 0.00 | 0.05 | 0.05 | 97 | 1008.6 |
| 20260509045102 | 73 | 97 | 0.9 | 3.5 | 0.00 | 0.05 | 0.05 | 97 | 1008.7 |
| 20260509045003 | 73 | 103 | 0.9 | 3.5 | 0.00 | 0.05 | 0.05 | 97 | 1008.6 |
| 20260509044839 | 73 | 102 | 1.7 | 3.5 | 0.00 | 0.05 | 0.05 | 97 | 1008.7 |
| 20260509044738 | 73 | 103 | 1.7 | 3.5 | 0.00 | 0.05 | 0.05 | 97 | 1008.7 |
| 20260509044635 | 73 | 102 | 1.7 | 3.5 | 0.00 | 0.05 | 0.05 | 97 | 1008.7 |
| 20260509044533 | 73 | 107 | 1.7 | 3.5 | 0.00 | 0.05 | 0.05 | 97 | 1008.6 |
| 20260509044434 | 73 | 144 | 1.7 | 3.5 | 0.00 | 0.05 | 0.05 | 97 | 1008.7 |
| 20260509044332 | 73 | 145 | 1.7 | 3.5 | 0.00 | 0.05 | 0.05 | 97 | 1008.7 |
| 20260509044231 | 73 | 107 | 0.9 | 0.9 | 0.00 | 0.05 | 0.05 | 97 | 1008.7 |
| 20260509044132 | 73 | 107 | 0.9 | 1.7 | 0.00 | 0.05 | 0.05 | 97 | 1008.7 |
| 20260509044032 | 73 | 107 | 0.9 | 1.7 | 0.00 | 0.05 | 0.05 | 97 | 1008.8 |
| 20260509043932 | 73 | 107 | 0.9 | 1.7 | 0.00 | 0.05 | 0.05 | 97 | 1008.7 |
| 20260509043833 | 73 | 107 | 0.9 | 1.7 | 0.00 | 0.05 | 0.05 | 97 | 1008.6 |
| 20260509043732 | 73 | 107 | 0.9 | 1.7 | 0.00 | 0.05 | 0.05 | 97 | 1008.8 |
| 20260509043632 | 73 | 107 | 0.9 | 1.7 | 0.00 | 0.05 | 0.05 | 97 | 1008.7 |
| 20260509043533 | 73 | 107 | 0.9 | 3.5 | 0.00 | 0.05 | 0.05 | 97 | 1008.8 |
| 20260509043432 | 73 | 107 | 0.9 | 4.3 | 0.00 | 0.05 | 0.05 | 97 | 1008.8 |
| 20260509043332 | 73 | 107 | 0.9 | 4.3 | 0.00 | 0.05 | 0.05 | 97 | 1008.8 |
| 20260509043232 | 73 | 107 | 0.9 | 4.3 | 0.00 | 0.05 | 0.05 | 97 | 1008.9 |
| 20260509043132 | 73 | 107 | 0.9 | 4.3 | 0.00 | 0.05 | 0.05 | 97 | 1008.8 |
| 20260509043033 | 73 | 107 | 0.9 | 4.3 | 0.00 | 0.05 | 0.05 | 97 | 1008.8 |
| 20260509042931 | 73 | 107 | 0.9 | 4.3 | 0.00 | 0.05 | 0.05 | 97 | 1008.8 |
| 20260509042832 | 73 | 103 | 2.6 | 4.3 | 0.00 | 0.05 | 0.05 | 97 | 1008.8 |
| 20260509042732 | 73 | 103 | 2.6 | 4.3 | 0.00 | 0.05 | 0.05 | 97 | 1008.8 |
| 20260509042632 | 73 | 103 | 2.6 | 4.3 | 0.00 | 0.05 | 0.05 | 97 | 1008.8 |
| 20260509042532 | 73 | 118 | 2.6 | 4.3 | 0.00 | 0.05 | 0.05 | 97 | 1008.8 |
| 20260509042432 | 73 | 104 | 1.7 | 4.3 | 0.00 | 0.05 | 0.05 | 97 | 1008.8 |
| 20260509042331 | 73 | 92 | 1.7 | 4.3 | 0.00 | 0.05 | 0.05 | 97 | 1008.7 |
| 20260509042233 | 73 | 90 | 1.7 | 4.3 | 0.00 | 0.05 | 0.05 | 97 | 1008.7 |
| 20260509042132 | 73 | 90 | 1.7 | 4.3 | 0.00 | 0.05 | 0.05 | 97 | 1008.6 |
| 20260509042031 | 73 | 90 | 1.7 | 4.3 | 0.00 | 0.05 | 0.05 | 97 | 1008.6 |
| 20260509041930 | 73 | 90 | 1.7 | 5.2 | 0.00 | 0.05 | 0.05 | 97 | 1008.6 |
| 20260509041830 | 73 | 90 | 1.7 | 5.2 | 0.00 | 0.05 | 0.05 | 97 | 1008.5 |
| 20260509041731 | 73 | 92 | 2.6 | 5.2 | 0.00 | 0.05 | 0.05 | 97 | 1008.5 |
| 20260509041632 | 72 | 92 | 2.6 | 5.2 | 0.00 | 0.05 | 0.05 | 97 | 1008.5 |
| 20260509041532 | 72 | 72 | 2.6 | 5.2 | 0.00 | 0.05 | 0.05 | 97 | 1008.6 |
| 20260509041431 | 73 | 72 | 2.6 | 5.2 | 0.00 | 0.05 | 0.05 | 97 | 1008.6 |
| 20260509041332 | 72 | 71 | 2.6 | 5.2 | 0.00 | 0.05 | 0.05 | 97 | 1008.5 |
| 20260509041232 | 72 | 68 | 1.7 | 5.2 | 0.00 | 0.05 | 0.05 | 97 | 1008.6 |
| 20260509041133 | 73 | 85 | 2.6 | 5.2 | 0.00 | 0.05 | 0.05 | 97 | 1008.5 |
| 20260509041030 | 72 | 86 | 3.5 | 5.2 | 0.00 | 0.05 | 0.05 | 97 | 1008.4 |
| 20260509040931 | 72 | 73 | 3.5 | 5.2 | 0.00 | 0.05 | 0.05 | 97 | 1008.3 |
| 20260509040831 | 72 | 71 | 2.6 | 5.2 | 0.00 | 0.05 | 0.05 | 97 | 1008.4 |
| 20260509040731 | 72 | 71 | 2.6 | 5.2 | 0.00 | 0.05 | 0.05 | 97 | 1008.4 |
| 20260509040632 | 72 | 80 | 3.5 | 5.2 | 0.00 | 0.05 | 0.05 | 97 | 1008.4 |
| 20260509040531 | 72 | 78 | 3.5 | 5.2 | 0.00 | 0.05 | 0.05 | 97 | 1008.3 |
| 20260509040432 | 72 | 82 | 3.5 | 5.2 | 0.00 | 0.05 | 0.05 | 97 | 1008.3 |
| 20260509040331 | 72 | 65 | 3.5 | 5.2 | 0.00 | 0.05 | 0.05 | 97 | 1008.3 |
| 20260509040231 | 72 | 83 | 3.5 | 5.2 | 0.00 | 0.05 | 0.05 | 97 | 1008.3 |
| 20260509040130 | 72 | 80 | 3.5 | 5.2 | 0.00 | 0.05 | 0.05 | 97 | 1008.2 |
| 20260509040032 | 72 | 90 | 3.5 | 4.3 | 0.00 | 0.05 | 0.05 | 97 | 1008.2 |
| 20260509035933 | 72 | 73 | 3.5 | 4.3 | 0.00 | 0.05 | 0.05 | 97 | 1008.1 |
| 20260509035832 | 72 | 75 | 3.5 | 4.3 | 0.00 | 0.05 | 0.05 | 97 | 1008.3 |
| 20260509035731 | 72 | 68 | 3.5 | 4.3 | 0.00 | 0.05 | 0.05 | 97 | 1008.2 |
| 20260509035632 | 72 | 78 | 3.5 | 4.3 | 0.00 | 0.05 | 0.05 | 97 | 1008.3 |
| 20260509035531 | 72 | 82 | 3.5 | 4.3 | 0.00 | 0.05 | 0.05 | 97 | 1008.3 |
| 20260509035431 | 72 | 79 | 3.5 | 4.3 | 0.00 | 0.05 | 0.05 | 97 | 1008.3 |
| 20260509035330 | 72 | 97 | 3.5 | 4.3 | 0.00 | 0.05 | 0.05 | 97 | 1008.2 |
| 20260509035233 | 72 | 102 | 3.5 | 4.3 | 0.00 | 0.05 | 0.05 | 97 | 1008.3 |
| 20260509035132 | 72 | 89 | 3.5 | 4.3 | 0.00 | 0.05 | 0.05 | 97 | 1008.2 |
| 20260509035032 | 72 | 89 | 3.5 | 4.3 | 0.00 | 0.05 | 0.05 | 97 | 1008.2 |
| 20260509034932 | 72 | 0 | 3.5 | 4.3 | 0.00 | 0.05 | 0.05 | 97 | 1008.2 |
| 20260509034831 | 72 | 75 | 3.5 | 4.3 | 0.00 | 0.05 | 0.05 | 97 | 1008.3 |
| 20260509034730 | 72 | 82 | 2.6 | 5.2 | 0.00 | 0.05 | 0.05 | 97 | 1008.3 |
| 20260509034620 | 72 | 80 | 2.6 | 5.2 | 0.00 | 0.05 | 0.05 | 97 | 1008.3 |
| 20260509034517 | 72 | 85 | 2.6 | 5.2 | 0.00 | 0.05 | 0.05 | 97 | 1008.4 |
| 20260509034416 | 72 | 103 | 1.7 | 5.2 | 0.00 | 0.05 | 0.05 | 97 | 1008.4 |
| 20260509034315 | 72 | 109 | 3.5 | 5.2 | 0.00 | 0.05 | 0.05 | 97 | 1008.4 |
| 20260509034214 | 72 | 96 | 3.5 | 5.2 | 0.00 | 0.05 | 0.05 | 97 | 1008.3 |
| 20260509034112 | 72 | 102 | 2.6 | 5.2 | 0.00 | 0.05 | 0.05 | 97 | 1008.4 |
| 20260509034012 | 72 | 96 | 1.7 | 5.2 | 0.00 | 0.05 | 0.05 | 97 | 1008.3 |
| 20260509033909 | 72 | 96 | 3.5 | 5.2 | 0.00 | 0.05 | 0.05 | 97 | 1008.3 |
| 20260509033809 | 72 | 83 | 3.5 | 5.2 | 0.00 | 0.05 | 0.05 | 97 | 1008.2 |
| 20260509033707 | 72 | 82 | 3.5 | 5.2 | 0.00 | 0.05 | 0.05 | 97 | 1008.2 |
| 20260509033604 | 72 | 83 | 3.5 | 5.2 | 0.00 | 0.05 | 0.05 | 97 | 1008.2 |
| 20260509033504 | 72 | 83 | 3.5 | 5.2 | 0.00 | 0.05 | 0.05 | 97 | 1008.1 |
| 20260509033403 | 72 | 100 | 3.5 | 5.2 | 0.00 | 0.05 | 0.05 | 97 | 1008.2 |
| 20260509033302 | 72 | 85 | 3.5 | 5.2 | 0.00 | 0.05 | 0.05 | 97 | 1008.3 |
| 20260509033202 | 72 | 114 | 1.7 | 5.2 | 0.00 | 0.05 | 0.05 | 97 | 1008.3 |
| 20260509033102 | 72 | 85 | 1.7 | 3.5 | 0.00 | 0.05 | 0.05 | 97 | 1008.4 |
| 20260509033002 | 72 | 83 | 2.6 | 3.5 | 0.00 | 0.05 | 0.05 | 97 | 1008.3 |
| 20260509032903 | 72 | 83 | 2.6 | 6.1 | 0.00 | 0.05 | 0.05 | 97 | 1008.4 |
| 20260509032803 | 72 | 82 | 2.6 | 6.1 | 0.00 | 0.05 | 0.05 | 97 | 1008.4 |
| 20260509032702 | 72 | 79 | 2.6 | 6.1 | 0.00 | 0.05 | 0.05 | 97 | 1008.3 |
| 20260509032605 | 72 | 79 | 2.6 | 6.1 | 0.00 | 0.05 | 0.05 | 97 | 1008.3 |
| 20260509032501 | 72 | 82 | 2.6 | 6.1 | 0.00 | 0.05 | 0.05 | 97 | 1008.3 |
| 20260509032401 | 72 | 82 | 2.6 | 6.1 | 0.00 | 0.05 | 0.05 | 97 | 1008.3 |
| 20260509032306 | 72 | 65 | 2.6 | 6.1 | 0.00 | 0.05 | 0.05 | 97 | 1008.3 |
| 20260509032203 | 72 | 93 | 3.5 | 6.1 | 0.00 | 0.05 | 0.05 | 97 | 1008.2 |
| 20260509032103 | 72 | 103 | 4.3 | 6.1 | 0.00 | 0.05 | 0.05 | 97 | 1008.2 |
| 20260509032002 | 72 | 99 | 4.3 | 6.1 | 0.00 | 0.05 | 0.05 | 97 | 1008.2 |
| 20260509031903 | 72 | 73 | 4.3 | 5.2 | 0.00 | 0.05 | 0.05 | 97 | 1008.2 |
| 20260509031802 | 72 | 79 | 3.5 | 5.2 | 0.00 | 0.05 | 0.05 | 97 | 1008.1 |
| 20260509031702 | 72 | 111 | 3.5 | 5.2 | 0.00 | 0.05 | 0.05 | 97 | 1008.2 |
| 20260509031600 | 72 | 82 | 4.3 | 5.2 | 0.00 | 0.05 | 0.05 | 97 | 1008.2 |
| 20260509031500 | 72 | 79 | 3.5 | 5.2 | 0.00 | 0.05 | 0.05 | 97 | 1008.1 |
| 20260509031402 | 72 | 90 | 2.6 | 4.3 | 0.00 | 0.05 | 0.05 | 97 | 1008.2 |
| 20260509031300 | 72 | 85 | 2.6 | 4.3 | 0.00 | 0.05 | 0.05 | 97 | 1008.1 |
| 20260509031200 | 72 | 82 | 2.6 | 4.3 | 0.00 | 0.05 | 0.05 | 97 | 1008.1 |
| 20260509031100 | 72 | 82 | 3.5 | 4.3 | 0.00 | 0.05 | 0.05 | 97 | 1008.1 |
| 20260509031000 | 72 | 89 | 3.5 | 4.3 | 0.00 | 0.05 | 0.05 | 97 | 1008.1 |
| 20260509030859 | 72 | 89 | 2.6 | 4.3 | 0.00 | 0.05 | 0.05 | 97 | 1008.2 |
| 20260509030759 | 72 | 83 | 2.6 | 4.3 | 0.00 | 0.05 | 0.05 | 97 | 1008.2 |
| 20260509030700 | 72 | 83 | 2.6 | 4.3 | 0.00 | 0.05 | 0.05 | 97 | 1008.3 |
| 20260509030600 | 72 | 92 | 3.5 | 4.3 | 0.00 | 0.05 | 0.05 | 97 | 1008.2 |
| 20260509030459 | 72 | 78 | 3.5 | 4.3 | 0.00 | 0.05 | 0.05 | 97 | 1008.2 |
| 20260509030400 | 72 | 73 | 3.5 | 4.3 | 0.00 | 0.05 | 0.05 | 97 | 1008.2 |
| 20260509030300 | 72 | 79 | 3.5 | 4.3 | 0.00 | 0.05 | 0.05 | 97 | 1008.2 |
| 20260509030200 | 72 | 90 | 3.5 | 4.3 | 0.00 | 0.05 | 0.05 | 97 | 1008.1 |
| 20260509030100 | 72 | 89 | 3.5 | 4.3 | 0.00 | 0.05 | 0.05 | 97 | 1008.0 |
| 20260509030000 | 72 | 71 | 3.5 | 4.3 | 0.00 | 0.05 | 0.05 | 97 | 1008.0 |
| 20260509025859 | 72 | 71 | 3.5 | 4.3 | 0.00 | 0.05 | 0.05 | 97 | 1008.0 |
| 20260509025801 | 72 | 69 | 3.5 | 4.3 | 0.00 | 0.05 | 0.05 | 97 | 1008.0 |
| 20260509025701 | 72 | 78 | 3.5 | 4.3 | 0.00 | 0.05 | 0.05 | 97 | 1008.1 |
| 20260509025600 | 72 | 68 | 2.6 | 4.3 | 0.00 | 0.05 | 0.05 | 97 | 1008.1 |
| 20260509025459 | 72 | 58 | 2.6 | 4.3 | 0.00 | 0.05 | 0.05 | 97 | 1008.1 |
| 20260509025359 | 72 | 58 | 3.5 | 4.3 | 0.00 | 0.05 | 0.05 | 97 | 1008.1 |
| 20260509025300 | 72 | 65 | 3.5 | 5.2 | 0.00 | 0.05 | 0.05 | 97 | 1008.1 |
| 20260509025159 | 72 | 61 | 2.6 | 5.2 | 0.00 | 0.05 | 0.05 | 97 | 1008.1 |
| 20260509025059 | 72 | 73 | 2.6 | 6.1 | 0.00 | 0.05 | 0.05 | 97 | 1008.1 |
| 20260509025000 | 72 | 78 | 2.6 | 6.1 | 0.00 | 0.05 | 0.05 | 97 | 1008.1 |
| 20260509024859 | 72 | 59 | 3.5 | 6.1 | 0.00 | 0.05 | 0.05 | 97 | 1008.0 |
| 20260509024759 | 72 | 69 | 2.6 | 6.1 | 0.00 | 0.05 | 0.05 | 97 | 1007.9 |
| 20260509024659 | 72 | 71 | 2.6 | 6.1 | 0.00 | 0.05 | 0.05 | 97 | 1007.8 |
| 20260509024601 | 72 | 83 | 2.6 | 6.1 | 0.00 | 0.05 | 0.05 | 97 | 1007.8 |
| 20260509024458 | 72 | 83 | 3.5 | 6.1 | 0.00 | 0.05 | 0.05 | 97 | 1007.9 |
| 20260509024358 | 72 | 86 | 3.5 | 6.1 | 0.00 | 0.05 | 0.05 | 97 | 1007.9 |
| 20260509024259 | 72 | 85 | 4.3 | 6.1 | 0.00 | 0.05 | 0.05 | 97 | 1007.9 |
| 20260509024159 | 72 | 85 | 4.3 | 6.1 | 0.00 | 0.05 | 0.05 | 97 | 1008.0 |
| 20260509024100 | 72 | 69 | 4.3 | 5.2 | 0.00 | 0.05 | 0.05 | 97 | 1007.9 |
| 20260509023959 | 72 | 75 | 3.5 | 5.2 | 0.00 | 0.05 | 0.05 | 97 | 1008.0 |
| 20260509023900 | 72 | 79 | 3.5 | 4.3 | 0.00 | 0.05 | 0.05 | 97 | 1007.9 |
| 20260509023759 | 72 | 79 | 3.5 | 4.3 | 0.00 | 0.05 | 0.05 | 97 | 1008.0 |
| 20260509023658 | 72 | 110 | 2.6 | 4.3 | 0.00 | 0.05 | 0.05 | 97 | 1007.9 |
| 20260509023559 | 72 | 82 | 2.6 | 4.3 | 0.00 | 0.05 | 0.05 | 97 | 1007.9 |
| 20260509023459 | 72 | 82 | 3.5 | 4.3 | 0.00 | 0.05 | 0.05 | 97 | 1007.9 |
| 20260509023359 | 72 | 93 | 3.5 | 4.3 | 0.00 | 0.05 | 0.05 | 97 | 1007.9 |
| 20260509023259 | 72 | 79 | 1.7 | 4.3 | 0.00 | 0.05 | 0.05 | 97 | 1007.9 |
| 20260509023200 | 72 | 87 | 2.6 | 5.2 | 0.00 | 0.05 | 0.05 | 97 | 1007.8 |
| 20260509023059 | 72 | 87 | 3.5 | 5.2 | 0.00 | 0.05 | 0.05 | 97 | 1007.8 |
| 20260509022959 | 72 | 86 | 3.5 | 5.2 | 0.00 | 0.05 | 0.05 | 97 | 1007.7 |
| 20260509022859 | 72 | 83 | 3.5 | 5.2 | 0.00 | 0.05 | 0.05 | 97 | 1007.6 |
| 20260509022758 | 72 | 56 | 3.5 | 5.2 | 0.00 | 0.05 | 0.05 | 97 | 1007.7 |
| 20260509022659 | 72 | 56 | 3.5 | 6.1 | 0.00 | 0.05 | 0.05 | 97 | 1007.7 |
| 20260509022559 | 72 | 48 | 3.5 | 6.1 | 0.00 | 0.05 | 0.05 | 97 | 1007.6 |
| 20260509022500 | 72 | 58 | 3.5 | 6.1 | 0.00 | 0.05 | 0.05 | 97 | 1007.7 |
| 20260509022358 | 72 | 78 | 3.5 | 6.1 | 0.00 | 0.05 | 0.05 | 97 | 1007.7 |
| 20260509022258 | 72 | 68 | 4.3 | 6.1 | 0.00 | 0.05 | 0.05 | 97 | 1007.7 |
| 20260509022200 | 72 | 73 | 4.3 | 6.1 | 0.00 | 0.05 | 0.05 | 97 | 1007.6 |
| 20260509022059 | 72 | 92 | 3.5 | 6.1 | 0.00 | 0.05 | 0.05 | 97 | 1007.7 |
| 20260509021959 | 72 | 66 | 4.3 | 6.1 | 0.00 | 0.05 | 0.05 | 97 | 1007.6 |
| 20260509021858 | 72 | 78 | 4.3 | 6.1 | 0.00 | 0.05 | 0.05 | 97 | 1007.6 |
| 20260509021800 | 72 | 96 | 4.3 | 6.1 | 0.00 | 0.05 | 0.05 | 97 | 1007.6 |
| 20260509021658 | 72 | 85 | 3.5 | 6.1 | 0.00 | 0.05 | 0.05 | 97 | 1007.6 |
| 20260509021559 | 72 | 86 | 3.5 | 6.1 | 0.00 | 0.05 | 0.05 | 97 | 1007.6 |
| 20260509021500 | 72 | 80 | 2.6 | 5.2 | 0.00 | 0.05 | 0.05 | 97 | 1007.7 |
| 20260509021358 | 72 | 65 | 2.6 | 5.2 | 0.00 | 0.05 | 0.05 | 97 | 1007.7 |
| 20260509021259 | 72 | 73 | 2.6 | 5.2 | 0.00 | 0.05 | 0.05 | 97 | 1007.6 |
| 20260509021200 | 72 | 71 | 2.6 | 6.1 | 0.00 | 0.05 | 0.05 | 97 | 1007.7 |
| 20260509021059 | 72 | 90 | 3.5 | 6.1 | 0.00 | 0.05 | 0.05 | 97 | 1007.6 |
| 20260509020958 | 72 | 65 | 3.5 | 6.1 | 0.00 | 0.05 | 0.05 | 97 | 1007.7 |
| 20260509020858 | 72 | 75 | 3.5 | 6.1 | 0.00 | 0.05 | 0.05 | 97 | 1007.7 |
| 20260509020759 | 72 | 80 | 3.5 | 6.1 | 0.00 | 0.05 | 0.05 | 97 | 1007.6 |
| 20260509020658 | 72 | 35 | 3.5 | 6.1 | 0.00 | 0.05 | 0.05 | 97 | 1007.6 |
| 20260509020559 | 72 | 80 | 3.5 | 6.1 | 0.00 | 0.05 | 0.05 | 97 | 1007.7 |
| 20260509020459 | 72 | 54 | 3.5 | 6.1 | 0.00 | 0.05 | 0.05 | 97 | 1007.7 |
| 20260509020357 | 72 | 63 | 4.3 | 6.1 | 0.00 | 0.05 | 0.05 | 97 | 1007.7 |
| 20260509020258 | 72 | 54 | 3.5 | 6.1 | 0.00 | 0.05 | 0.05 | 97 | 1007.6 |
| 20260509020158 | 72 | 65 | 3.5 | 5.2 | 0.00 | 0.05 | 0.05 | 97 | 1007.7 |
| 20260509020059 | 72 | 42 | 3.5 | 5.2 | 0.00 | 0.05 | 0.05 | 97 | 1007.7 |
| 20260509015957 | 72 | 54 | 4.3 | 5.2 | 0.00 | 0.05 | 0.05 | 97 | 1007.6 |
| 20260509015857 | 72 | 69 | 4.3 | 5.2 | 0.00 | 0.05 | 0.05 | 97 | 1007.6 |
| 20260509015759 | 72 | 59 | 3.5 | 5.2 | 0.00 | 0.05 | 0.05 | 97 | 1007.5 |
| 20260509015659 | 72 | 49 | 3.5 | 5.2 | 0.00 | 0.05 | 0.05 | 97 | 1007.6 |
| 20260509015558 | 72 | 75 | 3.5 | 5.2 | 0.00 | 0.05 | 0.05 | 97 | 1007.6 |
| 20260509015457 | 72 | 56 | 3.5 | 5.2 | 0.00 | 0.05 | 0.05 | 97 | 1007.6 |
| 20260509015400 | 72 | 63 | 2.6 | 5.2 | 0.00 | 0.05 | 0.05 | 96 | 1007.6 |
| 20260509015257 | 72 | 51 | 2.6 | 4.3 | 0.00 | 0.05 | 0.05 | 97 | 1007.6 |
| 20260509015158 | 72 | 49 | 2.6 | 4.3 | 0.00 | 0.05 | 0.05 | 97 | 1007.6 |
| 20260509015058 | 72 | 63 | 1.7 | 3.5 | 0.00 | 0.05 | 0.05 | 97 | 1007.6 |
| 20260509014958 | 72 | 63 | 1.7 | 3.5 | 0.00 | 0.05 | 0.05 | 97 | 1007.6 |
| 20260509014857 | 72 | 63 | 1.7 | 3.5 | 0.00 | 0.05 | 0.05 | 96 | 1007.6 |
| 20260509014757 | 72 | 63 | 1.7 | 4.3 | 0.00 | 0.05 | 0.05 | 97 | 1007.6 |
| 20260509014659 | 72 | 63 | 1.7 | 4.3 | 0.00 | 0.05 | 0.05 | 96 | 1007.6 |
| 20260509014558 | 72 | 63 | 2.6 | 4.3 | 0.00 | 0.05 | 0.05 | 97 | 1007.7 |
| 20260509014459 | 72 | 63 | 1.7 | 4.3 | 0.00 | 0.05 | 0.05 | 96 | 1007.6 |
| 20260509014357 | 72 | 68 | 1.7 | 4.3 | 0.00 | 0.05 | 0.05 | 96 | 1007.7 |
| 20260509014257 | 72 | 68 | 1.7 | 4.3 | 0.00 | 0.05 | 0.05 | 96 | 1007.7 |
| 20260509014158 | 72 | 68 | 2.6 | 4.3 | 0.00 | 0.05 | 0.05 | 96 | 1007.6 |
| 20260509014057 | 72 | 68 | 2.6 | 4.3 | 0.00 | 0.05 | 0.05 | 96 | 1007.6 |
| 20260509013958 | 72 | 82 | 3.5 | 4.3 | 0.00 | 0.05 | 0.05 | 96 | 1007.7 |
| 20260509013857 | 72 | 78 | 3.5 | 4.3 | 0.00 | 0.05 | 0.05 | 96 | 1007.7 |
| 20260509013758 | 72 | 68 | 2.6 | 4.3 | 0.00 | 0.05 | 0.05 | 96 | 1007.7 |
| 20260509013658 | 72 | 39 | 2.6 | 5.2 | 0.00 | 0.05 | 0.05 | 96 | 1007.6 |
| 20260509013557 | 72 | 35 | 2.6 | 5.2 | 0.00 | 0.05 | 0.05 | 96 | 1007.7 |
| 20260509013457 | 72 | 79 | 2.6 | 5.2 | 0.00 | 0.05 | 0.05 | 96 | 1007.7 |
| 20260509013357 | 72 | 79 | 3.5 | 5.2 | 0.00 | 0.05 | 0.05 | 96 | 1007.7 |
| 20260509013259 | 72 | 71 | 1.7 | 5.2 | 0.00 | 0.05 | 0.05 | 96 | 1007.7 |
| 20260509013157 | 72 | 66 | 1.7 | 7.8 | 0.00 | 0.05 | 0.05 | 96 | 1007.7 |
| 20260509013057 | 72 | 66 | 2.6 | 7.8 | 0.00 | 0.05 | 0.05 | 96 | 1007.6 |
| 20260509012958 | 72 | 66 | 2.6 | 7.8 | 0.00 | 0.05 | 0.05 | 96 | 1007.6 |
| 20260509012857 | 72 | 51 | 3.5 | 7.8 | 0.00 | 0.05 | 0.05 | 96 | 1007.6 |
| 20260509012758 | 72 | 63 | 3.5 | 7.8 | 0.00 | 0.05 | 0.05 | 96 | 1007.6 |
| 20260509012657 | 72 | 72 | 3.5 | 7.8 | 0.00 | 0.05 | 0.05 | 96 | 1007.6 |
| 20260509012559 | 72 | 102 | 3.5 | 7.8 | 0.00 | 0.05 | 0.05 | 96 | 1007.5 |
| 20260509012456 | 72 | 86 | 4.3 | 7.8 | 0.00 | 0.05 | 0.05 | 96 | 1007.6 |
| 20260509012357 | 72 | 69 | 4.3 | 7.8 | 0.00 | 0.05 | 0.05 | 96 | 1007.5 |
| 20260509012259 | 72 | 75 | 4.3 | 7.8 | 0.00 | 0.05 | 0.05 | 96 | 1007.5 |
| 20260509012157 | 72 | 93 | 3.5 | 4.3 | 0.00 | 0.05 | 0.05 | 96 | 1007.5 |
| 20260509012058 | 72 | 75 | 3.5 | 4.3 | 0.00 | 0.05 | 0.05 | 96 | 1007.4 |
| 20260509011957 | 72 | 75 | 3.5 | 4.3 | 0.00 | 0.05 | 0.05 | 96 | 1007.5 |
| 20260509011858 | 72 | 75 | 3.5 | 4.3 | 0.00 | 0.05 | 0.05 | 96 | 1007.5 |
| 20260509011756 | 72 | 69 | 3.5 | 4.3 | 0.00 | 0.05 | 0.05 | 96 | 1007.5 |
| 20260509011657 | 72 | 102 | 3.5 | 4.3 | 0.00 | 0.05 | 0.05 | 96 | 1007.5 |
| 20260509011559 | 72 | 72 | 3.5 | 4.3 | 0.00 | 0.05 | 0.05 | 96 | 1007.5 |
| 20260509011458 | 72 | 62 | 3.5 | 5.2 | 0.00 | 0.05 | 0.05 | 96 | 1007.5 |
| 20260509011358 | 72 | 78 | 3.5 | 7.8 | 0.00 | 0.05 | 0.05 | 96 | 1007.4 |
| 20260509011258 | 72 | 82 | 2.6 | 7.8 | 0.00 | 0.05 | 0.05 | 96 | 1007.4 |
| 20260509011157 | 72 | 68 | 1.7 | 7.8 | 0.00 | 0.05 | 0.05 | 96 | 1007.4 |
| 20260509011057 | 72 | 68 | 1.7 | 7.8 | 0.00 | 0.05 | 0.05 | 96 | 1007.4 |
| 20260509010957 | 72 | 66 | 2.6 | 7.8 | 0.00 | 0.05 | 0.05 | 96 | 1007.3 |
| 20260509010857 | 72 | 66 | 2.6 | 7.8 | 0.00 | 0.05 | 0.05 | 96 | 1007.4 |
| 20260509010756 | 72 | 66 | 2.6 | 7.8 | 0.00 | 0.05 | 0.05 | 96 | 1007.4 |
| 20260509010657 | 72 | 65 | 3.5 | 7.8 | 0.00 | 0.05 | 0.05 | 96 | 1007.4 |
| 20260509010558 | 72 | 72 | 5.2 | 7.8 | 0.00 | 0.05 | 0.05 | 96 | 1007.5 |
| 20260509010457 | 72 | 85 | 5.2 | 7.8 | 0.00 | 0.05 | 0.05 | 96 | 1007.4 |
| 20260509010358 | 72 | 55 | 4.3 | 6.1 | 0.00 | 0.05 | 0.05 | 96 | 1007.4 |
| 20260509010256 | 72 | 65 | 4.3 | 6.1 | 0.00 | 0.05 | 0.05 | 96 | 1007.3 |
| 20260509010157 | 72 | 24 | 3.5 | 6.1 | 0.00 | 0.05 | 0.05 | 96 | 1007.3 |
| 20260509010056 | 73 | 56 | 2.6 | 6.1 | 0.00 | 0.05 | 0.05 | 96 | 1007.3 |
| 20260509005956 | 72 | 76 | 2.6 | 5.2 | 0.00 | 0.05 | 0.05 | 96 | 1007.3 |
| 20260509005856 | 72 | 54 | 2.6 | 5.2 | 0.00 | 0.05 | 0.05 | 96 | 1007.3 |
| 20260509005756 | 72 | 48 | 2.6 | 5.2 | 0.00 | 0.05 | 0.05 | 96 | 1007.3 |
| 20260509005657 | 72 | 69 | 3.5 | 6.1 | 0.00 | 0.05 | 0.05 | 96 | 1007.4 |
| 20260509005556 | 72 | 66 | 3.5 | 6.1 | 0.00 | 0.05 | 0.05 | 96 | 1007.3 |
| 20260509005457 | 72 | 80 | 3.5 | 6.1 | 0.00 | 0.05 | 0.05 | 96 | 1007.4 |
| 20260509005357 | 73 | 65 | 3.5 | 6.1 | 0.00 | 0.05 | 0.05 | 96 | 1007.3 |
| 20260509005257 | 73 | 69 | 3.5 | 6.1 | 0.00 | 0.05 | 0.05 | 96 | 1007.4 |
| 20260509005158 | 73 | 73 | 2.6 | 6.1 | 0.00 | 0.05 | 0.05 | 96 | 1007.3 |
| 20260509005056 | 73 | 72 | 2.6 | 6.1 | 0.00 | 0.05 | 0.05 | 96 | 1007.3 |
| 20260509004956 | 73 | 63 | 2.6 | 6.1 | 0.00 | 0.05 | 0.05 | 96 | 1007.3 |
| 20260509004856 | 73 | 76 | 3.5 | 6.1 | 0.00 | 0.05 | 0.05 | 96 | 1007.2 |
| 20260509004756 | 73 | 58 | 3.5 | 6.1 | 0.00 | 0.05 | 0.05 | 96 | 1007.3 |
| 20260509004658 | 73 | 54 | 3.5 | 5.2 | 0.00 | 0.05 | 0.05 | 96 | 1007.2 |
| 20260509004556 | 73 | 44 | 3.5 | 5.2 | 0.00 | 0.05 | 0.05 | 96 | 1007.2 |
| 20260509004458 | 73 | 49 | 4.3 | 6.1 | 0.00 | 0.05 | 0.05 | 96 | 1007.2 |
| 20260509004357 | 73 | 55 | 4.3 | 6.1 | 0.00 | 0.05 | 0.05 | 96 | 1007.2 |
| 20260509004257 | 73 | 55 | 4.3 | 6.1 | 0.00 | 0.05 | 0.05 | 96 | 1007.1 |
| 20260509004157 | 73 | 55 | 4.3 | 6.1 | 0.00 | 0.05 | 0.05 | 96 | 1007.2 |
| 20260509004058 | 73 | 83 | 5.2 | 6.1 | 0.00 | 0.05 | 0.05 | 96 | 1007.2 |
| 20260509003957 | 73 | 44 | 4.3 | 6.1 | 0.00 | 0.05 | 0.05 | 96 | 1007.1 |
| 20260509003857 | 73 | 44 | 4.3 | 6.1 | 0.00 | 0.05 | 0.05 | 96 | 1007.2 |
| 20260509003758 | 73 | 44 | 4.3 | 6.1 | 0.00 | 0.05 | 0.05 | 96 | 1007.2 |
| 20260509003656 | 73 | 44 | 4.3 | 6.1 | 0.00 | 0.05 | 0.05 | 96 | 1007.2 |
| 20260509003557 | 73 | 42 | 4.3 | 6.1 | 0.00 | 0.05 | 0.05 | 96 | 1007.2 |
| 20260509003457 | 73 | 79 | 4.3 | 6.1 | 0.00 | 0.05 | 0.05 | 96 | 1007.2 |
| 20260509003356 | 73 | 51 | 4.3 | 6.1 | 0.00 | 0.05 | 0.05 | 96 | 1007.3 |
| 20260509003259 | 73 | 37 | 3.5 | 6.1 | 0.00 | 0.05 | 0.05 | 96 | 1007.2 |
| 20260509003156 | 73 | 78 | 3.5 | 6.1 | 0.00 | 0.05 | 0.05 | 96 | 1007.2 |
| 20260509003056 | 73 | 72 | 4.3 | 6.1 | 0.00 | 0.05 | 0.05 | 96 | 1007.3 |
| 20260509002956 | 73 | 47 | 3.5 | 5.2 | 0.00 | 0.05 | 0.05 | 96 | 1007.3 |
| 20260509002858 | 73 | 45 | 2.6 | 5.2 | 0.00 | 0.05 | 0.05 | 96 | 1007.3 |
| 20260509002758 | 73 | 45 | 1.7 | 3.5 | 0.00 | 0.05 | 0.05 | 96 | 1007.4 |
| 20260509002657 | 73 | 45 | 2.6 | 3.5 | 0.00 | 0.05 | 0.05 | 96 | 1007.4 |
| 20260509002556 | 73 | 45 | 2.6 | 5.2 | 0.00 | 0.05 | 0.05 | 96 | 1007.3 |
| 20260509002455 | 73 | 42 | 1.7 | 5.2 | 0.00 | 0.05 | 0.05 | 96 | 1007.4 |
| 20260509002357 | 73 | 41 | 1.7 | 5.2 | 0.00 | 0.05 | 0.05 | 96 | 1007.4 |
| 20260509002256 | 73 | 41 | 1.7 | 5.2 | 0.00 | 0.05 | 0.05 | 96 | 1007.3 |
| 20260509002157 | 73 | 25 | 2.6 | 5.2 | 0.00 | 0.05 | 0.05 | 96 | 1007.3 |
| 20260509002055 | 73 | 45 | 2.6 | 5.2 | 0.00 | 0.05 | 0.05 | 96 | 1007.4 |
| 20260509001956 | 73 | 47 | 2.6 | 5.2 | 0.00 | 0.05 | 0.05 | 96 | 1007.4 |
| 20260509001856 | 73 | 55 | 2.6 | 5.2 | 0.00 | 0.05 | 0.05 | 96 | 1007.4 |
| 20260509001756 | 73 | 56 | 3.5 | 5.2 | 0.00 | 0.05 | 0.05 | 96 | 1007.4 |
| 20260509001655 | 73 | 61 | 4.3 | 5.2 | 0.00 | 0.05 | 0.05 | 96 | 1007.3 |
| 20260509001557 | 73 | 66 | 3.5 | 5.2 | 0.00 | 0.05 | 0.05 | 96 | 1007.4 |
| 20260509001457 | 73 | 56 | 3.5 | 5.2 | 0.00 | 0.05 | 0.05 | 96 | 1007.5 |
| 20260509001355 | 73 | 92 | 2.6 | 5.2 | 0.00 | 0.05 | 0.05 | 96 | 1007.5 |
| 20260509001255 | 73 | 65 | 2.6 | 5.2 | 0.00 | 0.05 | 0.05 | 96 | 1007.5 |
| 20260509001156 | 73 | 65 | 3.5 | 6.1 | 0.00 | 0.05 | 0.05 | 96 | 1007.5 |
| 20260509001056 | 73 | 54 | 3.5 | 6.1 | 0.00 | 0.05 | 0.05 | 96 | 1007.4 |
| 20260509000956 | 73 | 58 | 4.3 | 6.1 | 0.00 | 0.05 | 0.05 | 96 | 1007.6 |
| 20260509000856 | 73 | 61 | 4.3 | 6.1 | 0.00 | 0.05 | 0.05 | 96 | 1007.4 |
| 20260509000756 | 73 | 63 | 3.5 | 6.1 | 0.00 | 0.05 | 0.05 | 96 | 1007.4 |
| 20260509000657 | 73 | 58 | 3.5 | 6.1 | 0.00 | 0.05 | 0.05 | 96 | 1007.4 |
| 20260509000555 | 73 | 78 | 3.5 | 6.1 | 0.00 | 0.05 | 0.05 | 96 | 1007.4 |
| 20260509000455 | 73 | 59 | 3.5 | 6.1 | 0.00 | 0.05 | 0.05 | 96 | 1007.4 |
| 20260509000355 | 73 | 49 | 3.5 | 6.1 | 0.00 | 0.05 | 0.05 | 96 | 1007.4 |
| 20260509000256 | 73 | 49 | 4.3 | 6.1 | 0.00 | 0.05 | 0.05 | 96 | 1007.4 |
| 20260509000155 | 73 | 52 | 4.3 | 6.1 | 0.00 | 0.05 | 0.05 | 96 | 1007.3 |
| 20260509000057 | 73 | 83 | 4.3 | 5.2 | 0.00 | 0.05 | 0.05 | 96 | 1007.4 |
| 20260508235958 | 73 | 55 | 3.5 | 5.2 | 0.00 | 0.05 | 0.05 | 96 | 1007.4 |
| 20260508235856 | 73 | 51 | 2.6 | 5.2 | 0.00 | 0.05 | 0.05 | 96 | 1007.4 |
| 20260508235755 | 73 | 49 | 2.6 | 5.2 | 0.00 | 0.05 | 0.05 | 96 | 1007.4 |
| 20260508235655 | 73 | 52 | 3.5 | 5.2 | 0.00 | 0.05 | 0.05 | 96 | 1007.5 |
| 20260508235557 | 73 | 52 | 4.3 | 5.2 | 0.00 | 0.05 | 0.05 | 96 | 1007.4 |
| 20260508235454 | 73 | 66 | 4.3 | 5.2 | 0.00 | 0.05 | 0.05 | 96 | 1007.4 |
| 20260508235356 | 73 | 59 | 3.5 | 5.2 | 0.00 | 0.05 | 0.05 | 96 | 1007.5 |
| 20260508235255 | 73 | 68 | 3.5 | 5.2 | 0.00 | 0.05 | 0.05 | 96 | 1007.5 |
| 20260508235156 | 73 | 56 | 3.5 | 5.2 | 0.00 | 0.05 | 0.05 | 96 | 1007.5 |
| 20260508235057 | 73 | 90 | 2.6 | 5.2 | 0.00 | 0.05 | 0.05 | 96 | 1007.6 |
| 20260508234955 | 73 | 72 | 2.6 | 4.3 | 0.00 | 0.05 | 0.05 | 96 | 1007.6 |
| 20260508234857 | 73 | 55 | 3.5 | 4.3 | 0.00 | 0.05 | 0.05 | 96 | 1007.6 |
| 20260508234756 | 73 | 65 | 3.5 | 4.3 | 0.00 | 0.05 | 0.05 | 96 | 1007.5 |
| 20260508234657 | 73 | 65 | 3.5 | 4.3 | 0.00 | 0.05 | 0.05 | 96 | 1007.5 |
| 20260508234555 | 73 | 65 | 3.5 | 4.3 | 0.00 | 0.05 | 0.05 | 96 | 1007.5 |
| 20260508234455 | 73 | 44 | 3.5 | 4.3 | 0.00 | 0.05 | 0.05 | 96 | 1007.6 |
| 20260508234356 | 73 | 45 | 3.5 | 4.3 | 0.00 | 0.05 | 0.05 | 96 | 1007.5 |
| 20260508234254 | 73 | 51 | 3.5 | 3.5 | 0.00 | 0.05 | 0.05 | 96 | 1007.5 |
| 20260508234156 | 73 | 51 | 3.5 | 3.5 | 0.00 | 0.05 | 0.05 | 96 | 1007.5 |
| 20260508234057 | 73 | 49 | 2.6 | 3.5 | 0.00 | 0.05 | 0.05 | 96 | 1007.6 |
| 20260508233955 | 73 | 49 | 2.6 | 3.5 | 0.00 | 0.05 | 0.05 | 96 | 1007.6 |
| 20260508233856 | 73 | 49 | 2.6 | 3.5 | 0.00 | 0.05 | 0.05 | 96 | 1007.6 |
| 20260508233755 | 73 | 49 | 2.6 | 5.2 | 0.00 | 0.05 | 0.05 | 96 | 1007.7 |
| 20260508233654 | 73 | 49 | 2.6 | 5.2 | 0.00 | 0.05 | 0.05 | 96 | 1007.7 |
| 20260508233555 | 73 | 44 | 2.6 | 5.2 | 0.00 | 0.05 | 0.05 | 96 | 1007.7 |
| 20260508233456 | 73 | 35 | 2.6 | 5.2 | 0.00 | 0.05 | 0.05 | 96 | 1007.7 |
| 20260508233355 | 73 | 35 | 1.7 | 5.2 | 0.00 | 0.05 | 0.05 | 96 | 1007.7 |
| 20260508233255 | 73 | 59 | 3.5 | 5.2 | 0.00 | 0.05 | 0.05 | 96 | 1007.6 |
| 20260508233156 | 73 | 59 | 3.5 | 5.2 | 0.00 | 0.05 | 0.05 | 96 | 1007.5 |
| 20260508233055 | 73 | 59 | 3.5 | 5.2 | 0.01 | 0.05 | 0.05 | 96 | 1007.6 |
| 20260508232955 | 73 | 59 | 3.5 | 5.2 | 0.01 | 0.05 | 0.05 | 96 | 1007.5 |
| 20260508232855 | 73 | 58 | 3.5 | 5.2 | 0.01 | 0.05 | 0.05 | 96 | 1007.6 |
| 20260508232755 | 73 | 48 | 3.5 | 5.2 | 0.01 | 0.05 | 0.05 | 96 | 1007.6 |
| 20260508232654 | 73 | 69 | 3.5 | 5.2 | 0.01 | 0.05 | 0.05 | 95 | 1007.6 |
| 20260508232554 | 73 | 62 | 3.5 | 5.2 | 0.01 | 0.05 | 0.05 | 95 | 1007.6 |
| 20260508232456 | 73 | 58 | 3.5 | 5.2 | 0.01 | 0.05 | 0.05 | 96 | 1007.6 |
| 20260508232355 | 73 | 62 | 2.6 | 5.2 | 0.01 | 0.05 | 0.05 | 96 | 1007.6 |
| 20260508232254 | 73 | 62 | 2.6 | 5.2 | 0.01 | 0.05 | 0.05 | 96 | 1007.6 |
| 20260508232154 | 73 | 62 | 2.6 | 5.2 | 0.01 | 0.05 | 0.05 | 96 | 1007.7 |
| 20260508232056 | 73 | 62 | 2.6 | 5.2 | 0.01 | 0.05 | 0.05 | 95 | 1007.7 |
| 20260508231957 | 73 | 62 | 3.5 | 5.2 | 0.01 | 0.05 | 0.05 | 95 | 1007.7 |
| 20260508231855 | 73 | 49 | 3.5 | 5.2 | 0.01 | 0.05 | 0.05 | 95 | 1007.7 |
| 20260508231755 | 73 | 65 | 3.5 | 5.2 | 0.01 | 0.05 | 0.05 | 95 | 1007.7 |
| 20260508231655 | 73 | 59 | 3.5 | 5.2 | 0.01 | 0.05 | 0.05 | 95 | 1007.7 |
| 20260508231556 | 73 | 68 | 3.5 | 5.2 | 0.01 | 0.05 | 0.05 | 95 | 1007.7 |
| 20260508231454 | 73 | 47 | 3.5 | 5.2 | 0.01 | 0.05 | 0.05 | 95 | 1007.7 |
| 20260508231355 | 73 | 59 | 3.5 | 5.2 | 0.01 | 0.05 | 0.05 | 96 | 1007.6 |
| 20260508231254 | 73 | 65 | 2.6 | 3.5 | 0.01 | 0.05 | 0.05 | 95 | 1007.7 |
| 20260508231154 | 73 | 51 | 2.6 | 3.5 | 0.01 | 0.05 | 0.05 | 96 | 1007.7 |
| 20260508231054 | 73 | 51 | 2.6 | 3.5 | 0.01 | 0.05 | 0.05 | 96 | 1007.6 |
| 20260508230954 | 73 | 51 | 2.6 | 3.5 | 0.01 | 0.05 | 0.05 | 96 | 1007.5 |
| 20260508230855 | 73 | 44 | 2.6 | 3.5 | 0.01 | 0.05 | 0.05 | 96 | 1007.5 |
| 20260508230755 | 73 | 44 | 2.6 | 4.3 | 0.01 | 0.05 | 0.05 | 96 | 1007.6 |
| 20260508230654 | 73 | 42 | 1.7 | 4.3 | 0.01 | 0.05 | 0.05 | 96 | 1007.6 |
| 20260508230555 | 73 | 42 | 1.7 | 5.2 | 0.01 | 0.05 | 0.05 | 96 | 1007.6 |
| 20260508230455 | 73 | 42 | 1.7 | 5.2 | 0.01 | 0.05 | 0.05 | 96 | 1007.5 |
| 20260508230355 | 73 | 42 | 1.7 | 5.2 | 0.01 | 0.05 | 0.05 | 96 | 1007.5 |
| 20260508230255 | 73 | 42 | 1.7 | 5.2 | 0.01 | 0.05 | 0.05 | 96 | 1007.6 |
| 20260508230154 | 73 | 41 | 1.7 | 5.2 | 0.01 | 0.05 | 0.05 | 96 | 1007.5 |
| 20260508230056 | 73 | 58 | 1.7 | 5.2 | 0.01 | 0.05 | 0.05 | 96 | 1007.5 |
| 20260508225955 | 73 | 63 | 2.6 | 5.2 | 0.01 | 0.04 | 0.05 | 96 | 1007.5 |
| 20260508225855 | 73 | 63 | 3.5 | 5.2 | 0.01 | 0.04 | 0.05 | 96 | 1007.4 |
| 20260508225755 | 73 | 65 | 3.5 | 6.1 | 0.01 | 0.04 | 0.05 | 96 | 1007.4 |
| 20260508225655 | 73 | 73 | 3.5 | 6.1 | 0.01 | 0.04 | 0.05 | 96 | 1007.4 |
| 20260508225554 | 73 | 68 | 4.3 | 6.1 | 0.01 | 0.04 | 0.05 | 96 | 1007.4 |
| 20260508225454 | 73 | 68 | 4.3 | 6.1 | 0.01 | 0.04 | 0.05 | 96 | 1007.4 |
| 20260508225355 | 73 | 68 | 4.3 | 6.1 | 0.01 | 0.04 | 0.05 | 96 | 1007.3 |
| 20260508225254 | 73 | 68 | 4.3 | 6.1 | 0.01 | 0.04 | 0.05 | 96 | 1007.3 |
| 20260508225153 | 73 | 97 | 5.2 | 6.1 | 0.01 | 0.04 | 0.05 | 96 | 1007.3 |
| 20260508225053 | 73 | 82 | 5.2 | 6.1 | 0.01 | 0.04 | 0.05 | 96 | 1007.3 |
| 20260508224954 | 73 | 85 | 4.3 | 6.1 | 0.01 | 0.04 | 0.05 | 96 | 1007.4 |
| 20260508224853 | 73 | 99 | 3.5 | 6.1 | 0.01 | 0.04 | 0.05 | 96 | 1007.3 |
| 20260508224753 | 73 | 71 | 2.6 | 4.3 | 0.01 | 0.04 | 0.05 | 96 | 1007.3 |
| 20260508224654 | 73 | 54 | 2.6 | 5.2 | 0.01 | 0.04 | 0.05 | 96 | 1007.4 |
| 20260508224553 | 73 | 59 | 3.5 | 5.2 | 0.01 | 0.04 | 0.05 | 96 | 1007.4 |
| 20260508224454 | 73 | 41 | 3.5 | 5.2 | 0.01 | 0.04 | 0.05 | 96 | 1007.4 |
| 20260508224353 | 73 | 35 | 2.6 | 5.2 | 0.01 | 0.04 | 0.05 | 96 | 1007.4 |
| 20260508224255 | 72 | 35 | 2.6 | 5.2 | 0.01 | 0.04 | 0.05 | 96 | 1007.5 |
| 20260508224154 | 72 | 62 | 2.6 | 5.2 | 0.01 | 0.04 | 0.05 | 96 | 1007.6 |
| 20260508224054 | 72 | 62 | 2.6 | 5.2 | 0.01 | 0.04 | 0.05 | 96 | 1007.5 |
| 20260508223953 | 72 | 56 | 1.7 | 5.2 | 0.01 | 0.04 | 0.05 | 96 | 1007.5 |
| 20260508223853 | 72 | 58 | 3.5 | 5.2 | 0.01 | 0.04 | 0.05 | 95 | 1007.5 |
| 20260508223753 | 72 | 58 | 3.5 | 5.2 | 0.01 | 0.04 | 0.05 | 96 | 1007.5 |
| 20260508223654 | 72 | 49 | 3.5 | 5.2 | 0.01 | 0.04 | 0.05 | 96 | 1007.4 |
| 20260508223554 | 72 | 42 | 3.5 | 5.2 | 0.01 | 0.04 | 0.05 | 95 | 1007.4 |
| 20260508223453 | 72 | 47 | 3.5 | 5.2 | 0.01 | 0.04 | 0.05 | 95 | 1007.5 |
| 20260508223353 | 73 | 51 | 3.5 | 5.2 | 0.01 | 0.04 | 0.05 | 95 | 1007.5 |
| 20260508223255 | 73 | 58 | 1.7 | 4.3 | 0.01 | 0.04 | 0.05 | 96 | 1007.5 |
| 20260508223153 | 73 | 55 | 1.7 | 3.5 | 0.01 | 0.04 | 0.04 | 96 | 1007.5 |
| 20260508223053 | 73 | 55 | 2.6 | 3.5 | 0.00 | 0.04 | 0.04 | 96 | 1007.5 |
| 20260508222954 | 73 | 55 | 2.6 | 3.5 | 0.00 | 0.04 | 0.04 | 96 | 1007.5 |
| 20260508222854 | 72 | 58 | 3.5 | 4.3 | 0.00 | 0.04 | 0.04 | 96 | 1007.5 |
| 20260508222753 | 72 | 63 | 3.5 | 4.3 | 0.00 | 0.04 | 0.04 | 95 | 1007.5 |
| 20260508222653 | 72 | 56 | 3.5 | 4.3 | 0.00 | 0.04 | 0.04 | 95 | 1007.5 |
| 20260508222555 | 72 | 56 | 3.5 | 4.3 | 0.00 | 0.04 | 0.04 | 95 | 1007.6 |
| 20260508222453 | 72 | 61 | 3.5 | 4.3 | 0.00 | 0.04 | 0.04 | 95 | 1007.5 |
| 20260508222353 | 72 | 59 | 2.6 | 4.3 | 0.00 | 0.04 | 0.04 | 95 | 1007.6 |
| 20260508222254 | 72 | 47 | 2.6 | 4.3 | 0.00 | 0.04 | 0.04 | 95 | 1007.6 |
| 20260508222154 | 72 | 47 | 2.6 | 4.3 | 0.00 | 0.04 | 0.04 | 95 | 1007.6 |
| 20260508222054 | 72 | 47 | 2.6 | 4.3 | 0.00 | 0.04 | 0.04 | 95 | 1007.6 |
| 20260508221954 | 72 | 47 | 2.6 | 4.3 | 0.00 | 0.04 | 0.04 | 95 | 1007.6 |
| 20260508221853 | 72 | 34 | 1.7 | 3.5 | 0.00 | 0.04 | 0.04 | 96 | 1007.7 |
| 20260508221755 | 72 | 34 | 1.7 | 3.5 | 0.00 | 0.04 | 0.04 | 96 | 1007.6 |
| 20260508221653 | 72 | 34 | 1.7 | 4.3 | 0.00 | 0.04 | 0.04 | 96 | 1007.6 |
| 20260508221555 | 72 | 34 | 1.7 | 4.3 | 0.00 | 0.04 | 0.04 | 95 | 1007.7 |
| 20260508221454 | 72 | 34 | 1.7 | 4.3 | 0.00 | 0.04 | 0.04 | 95 | 1007.7 |
| 20260508221354 | 72 | 34 | 2.6 | 4.3 | 0.00 | 0.04 | 0.04 | 95 | 1007.7 |
| 20260508221252 | 72 | 34 | 2.6 | 4.3 | 0.00 | 0.04 | 0.04 | 95 | 1007.6 |
| 20260508221154 | 72 | 32 | 2.6 | 4.3 | 0.00 | 0.04 | 0.04 | 95 | 1007.6 |
| 20260508221052 | 72 | 32 | 2.6 | 4.3 | 0.00 | 0.04 | 0.04 | 95 | 1007.6 |
| 20260508220952 | 72 | 42 | 2.6 | 4.3 | 0.00 | 0.04 | 0.04 | 95 | 1007.6 |
| 20260508220853 | 72 | 41 | 2.6 | 4.3 | 0.00 | 0.04 | 0.04 | 95 | 1007.7 |
| 20260508220754 | 72 | 42 | 2.6 | 4.3 | 0.00 | 0.04 | 0.04 | 95 | 1007.7 |
| 20260508220653 | 73 | 42 | 1.7 | 5.2 | 0.00 | 0.04 | 0.04 | 95 | 1007.7 |
| 20260508220552 | 73 | 42 | 1.7 | 5.2 | 0.00 | 0.04 | 0.04 | 96 | 1007.7 |
| 20260508220454 | 72 | 41 | 1.7 | 5.2 | 0.00 | 0.04 | 0.04 | 96 | 1007.7 |
| 20260508220353 | 72 | 41 | 1.7 | 5.2 | 0.00 | 0.04 | 0.04 | 95 | 1007.7 |
| 20260508220252 | 72 | 41 | 2.6 | 5.2 | 0.00 | 0.04 | 0.04 | 95 | 1007.7 |
| 20260508220153 | 72 | 41 | 2.6 | 5.2 | 0.00 | 0.04 | 0.04 | 95 | 1007.7 |
| 20260508220053 | 72 | 42 | 3.5 | 5.2 | 0.00 | 0.04 | 0.04 | 95 | 1007.7 |
| 20260508215952 | 72 | 34 | 3.5 | 5.2 | 0.00 | 0.04 | 0.04 | 95 | 1007.7 |
| 20260508215852 | 72 | 31 | 3.5 | 5.2 | 0.00 | 0.04 | 0.04 | 95 | 1007.6 |
| 20260508215754 | 72 | 49 | 3.5 | 5.2 | 0.00 | 0.04 | 0.04 | 95 | 1007.6 |
| 20260508215652 | 72 | 38 | 2.6 | 5.2 | 0.00 | 0.04 | 0.04 | 95 | 1007.6 |
| 20260508215553 | 72 | 52 | 2.6 | 5.2 | 0.00 | 0.04 | 0.04 | 95 | 1007.6 |
| 20260508215455 | 72 | 55 | 3.5 | 5.2 | 0.00 | 0.04 | 0.04 | 95 | 1007.6 |
| 20260508215353 | 72 | 54 | 2.6 | 5.2 | 0.00 | 0.04 | 0.04 | 95 | 1007.7 |
| 20260508215253 | 72 | 47 | 2.6 | 5.2 | 0.00 | 0.04 | 0.04 | 95 | 1007.7 |
| 20260508215152 | 72 | 47 | 2.6 | 5.2 | 0.00 | 0.04 | 0.04 | 95 | 1007.6 |
| 20260508215053 | 72 | 59 | 3.5 | 5.2 | 0.00 | 0.04 | 0.04 | 95 | 1007.7 |
| 20260508214953 | 72 | 52 | 2.6 | 5.2 | 0.00 | 0.04 | 0.04 | 95 | 1007.7 |
| 20260508214852 | 72 | 51 | 1.7 | 4.3 | 0.00 | 0.04 | 0.04 | 95 | 1007.7 |
| 20260508214754 | 72 | 51 | 1.7 | 4.3 | 0.00 | 0.04 | 0.04 | 95 | 1007.7 |
| 20260508214653 | 72 | 45 | 1.7 | 4.3 | 0.00 | 0.04 | 0.04 | 95 | 1007.7 |
| 20260508214552 | 72 | 45 | 2.6 | 4.3 | 0.00 | 0.04 | 0.04 | 95 | 1007.8 |
| 20260508214453 | 72 | 42 | 2.6 | 4.3 | 0.00 | 0.04 | 0.04 | 95 | 1007.9 |
| 20260508214354 | 72 | 59 | 3.5 | 4.3 | 0.00 | 0.04 | 0.04 | 95 | 1007.9 |
| 20260508214253 | 72 | 56 | 3.5 | 4.3 | 0.00 | 0.04 | 0.04 | 95 | 1007.9 |
| 20260508214152 | 72 | 62 | 2.6 | 4.3 | 0.00 | 0.04 | 0.04 | 95 | 1007.9 |
| 20260508214053 | 72 | 49 | 2.6 | 4.3 | 0.00 | 0.04 | 0.04 | 95 | 1007.9 |
| 20260508213952 | 72 | 48 | 3.5 | 4.3 | 0.00 | 0.04 | 0.04 | 95 | 1007.9 |
| 20260508213853 | 72 | 48 | 3.5 | 4.3 | 0.00 | 0.04 | 0.04 | 95 | 1008.0 |
| 20260508213753 | 72 | 47 | 2.6 | 4.3 | 0.00 | 0.04 | 0.04 | 95 | 1008.0 |
| 20260508213653 | 72 | 47 | 1.7 | 4.3 | 0.00 | 0.04 | 0.04 | 95 | 1007.9 |
| 20260508213552 | 72 | 47 | 2.6 | 4.3 | 0.00 | 0.04 | 0.04 | 95 | 1007.9 |
| 20260508213451 | 72 | 48 | 2.6 | 4.3 | 0.00 | 0.04 | 0.04 | 94 | 1008.0 |
| 20260508213353 | 72 | 48 | 3.5 | 4.3 | 0.00 | 0.04 | 0.04 | 94 | 1008.0 |
| 20260508213253 | 72 | 42 | 3.5 | 4.3 | 0.00 | 0.04 | 0.04 | 94 | 1008.0 |
| 20260508213151 | 73 | 39 | 3.5 | 4.3 | 0.00 | 0.04 | 0.04 | 94 | 1007.9 |
| 20260508213052 | 73 | 38 | 2.6 | 4.3 | 0.00 | 0.04 | 0.04 | 94 | 1008.0 |
| 20260508212952 | 73 | 47 | 2.6 | 4.3 | 0.00 | 0.04 | 0.04 | 94 | 1008.0 |
| 20260508212852 | 73 | 45 | 1.7 | 4.3 | 0.00 | 0.04 | 0.04 | 94 | 1008.0 |
| 20260508212752 | 73 | 44 | 2.6 | 4.3 | 0.00 | 0.04 | 0.04 | 94 | 1008.0 |
| 20260508212652 | 73 | 44 | 2.6 | 4.3 | 0.00 | 0.04 | 0.04 | 94 | 1008.0 |
| 20260508212554 | 73 | 42 | 2.6 | 4.3 | 0.00 | 0.04 | 0.04 | 94 | 1008.0 |
| 20260508212453 | 73 | 32 | 1.7 | 5.2 | 0.00 | 0.04 | 0.04 | 94 | 1007.9 |
| 20260508212352 | 73 | 63 | 1.7 | 5.2 | 0.00 | 0.04 | 0.04 | 94 | 1008.0 |